GFSSE_con_3kmhel_000.txt.gz
Helicity
12 17 9 -11 -6 4 9 39 47 49 28 27 58 71 79 76 82 80 60 49 56 48 51 62 77 72 53 43 41 44 48 37 30 37 34 31 26 25 27 29 -8 24 52
8 11 11 -14 -1 14 1 30 60 69 41 26 14 18 38 46 39 57 63 72 51 36 35 53 49 77 71 69 57 51 50 46 38 36 38 25 22 23 30 19 -28 81 58
5 7 8 10 9 27 52 63 54 54 74 102 44 21 39 23 59 58 4 35 45 42 46 65 66 53 64 63 58 53 49 46 38 34 12 -7 19 19 26 16 39 67 47
-27 -15 3 0 5 1 14 23 47 32 103 63 74 68 71 113 130 153 74 -2 20 41 38 63 85 68 69 72 62 61 46 47 43 39 9 31 43 37 30 12 17 24 30
-29 -24 -4 -12 6 -16 5 27 35 37 49 92 87 83 136 101 92 25 -2 22 32 43 51 59 68 88 86 101 77 76 75 45 47 19 21 33 34 66 39 24 17 9 -10
-20 -18 7 9 3 -8 -12 3 -7 14 37 46 72 60 118 93 101 51 41 29 41 53 55 54 59 58 40 76 70 69 89 61 37 12 35 47 41 89 49 33 -1 81 95
4 -1 21 18 1 2 7 2 3 16 26 49 73 83 88 126 123 125 95 69 83 77 64 82 68 66 58 60 59 56 52 65 10 31 30 31 23 69 50 88 122 108 93
21 6 6 14 18 19 13 6 12 23 37 50 63 79 84 89 83 69 83 74 66 62 55 70 70 100 61 61 54 67 49 26 13 31 29 27 99 70 43 68 111 101 101
25 7 2 3 12 18 36 42 35 34 36 41 47 57 70 79 99 85 74 73 62 74 68 68 95 78 81 84 85 90 79 52 14 31 40 37 107 68 40 69 88 93 98
20 16 16 10 28 42 57 85 71 67 49 35 33 46 69 90 88 90 85 65 78 65 61 55 65 72 116 144 130 113 106 87 51 49 41 46 55 50 48 60 90 105 96
44 42 34 36 53 67 78 90 47 55 48 34 37 67 57 118 162 238 294 276 272 82 59 77 75 81 104 117 114 108 93 125 133 105 40 73 60 44 38 61 80 109 90
72 70 62 75 84 77 83 64 65 68 86 101 80 63 59 84 109 139 105 172 242 320 227 59 83 84 64 79 77 62 91 113 86 80 66 48 43 49 32 44 82 79 86
95 89 91 87 89 74 83 59 76 81 78 87 81 69 75 85 77 84 61 31 -133 0 -30 192 51 64 91 66 73 68 83 106 128 90 95 36 44 50 40 46 58 73 68
87 84 87 88 73 72 55 73 75 80 81 68 56 36 30 41 37 79 123 189 153 76 -55 -4 -51 -20 222 38 69 91 64 103 158 187 149 111 34 52 46 31 40 77 68
94 94 86 57 69 62 60 69 81 77 77 60 53 55 49 58 69 62 58 44 67 -29 -59 -41 -9 -22 24 38 71 84 67 63 73 180 248 133 58 52 62 35 27 61 78
62 56 50 68 70 70 81 91 91 94 85 83 79 79 80 67 60 66 67 56 64 56 4 12 31 57 -20 51 4 20 39 57 78 103 138 218 238 106 70 61 26 36 64
55 62 83 88 93 86 89 93 100 103 98 90 76 81 89 75 77 80 81 79 85 93 76 97 78 40 -2 -4 20 64 64 55 51 91 120 161 174 214 116 58 45 45 54
66 85 101 109 114 127 132 130 134 127 120 114 98 91 89 92 80 71 76 93 91 95 105 130 123 132 104 115 74 57 72 56 48 43 80 155 141 262 70 86 48 47 49
107 113 144 146 150 163 176 180 179 164 157 138 109 85 66 69 73 75 74 78 74 89 96 112 112 106 100 104 103 80 151 145 87 101 98 113 153 139 150 137 82 57 56
139 142 169 164 175 177 171 168 154 146 139 112 86 63 24 28 27 65 66 51 53 69 77 98 114 119 108 107 90 72 85 104 112 122 93 127 132 146 153 149 96 94 64
158 155 177 181 176 164 154 152 155 164 148 112 68 33 6 35 36 32 45 50 39 58 76 88 99 123 142 119 90 118 100 109 117 191 145 109 119 184 162 169 166 100 128
156 167 187 180 183 172 174 197 203 186 155 117 77 37 7 7 14 11 23 36 61 74 79 98 100 96 97 109 127 130 112 155 147 164 145 154 100 136 182 164 116 83 108
138 157 167 200 197 196 223 207 184 161 127 77 35 11 27 8 -3 16 25 11 22 30 63 89 106 115 143 116 69 139 168 229 203 179 169 145 130 153 139 198 159 149 145
62 124 176 197 202 206 202 198 158 129 101 83 88 88 66 65 44 28 28 18 17 31 45 44 62 99 119 164 139 80 81 142 176 142 189 245 242 143 101 132 188 213 135
87 105 118 146 178 201 184 132 112 85 66 66 88 108 99 81 81 80 77 81 71 67 63 67 62 56 67 101 123 141 124 86 113 190 154 232 212 219 221 131 112 214 160
87 88 117 160 177 181 181 144 121 112 98 112 126 124 117 99 124 122 139 152 143 141 131 123 104 84 73 65 74 92 151 168 158 160 182 192 210 198 115 165 161 134 202

GFSSE_con_3kmhel_003.txt.gz
Helicity
24 13 3 -6 -7 6 4 15 6 8 15 4 21 35 21 24 34 29 31 37 44 37 20 36 40 50 40 56 56 51 46 49 38 32 33 35 35 27 25 5 -28 33 59
12 16 11 4 -8 1 7 17 29 37 -25 -13 8 19 17 26 10 49 94 65 25 18 28 30 35 46 34 43 59 50 40 33 32 31 25 11 21 24 25 11 39 94 82
24 5 -3 -13 -22 -19 5 11 2 13 40 43 8 32 35 87 115 142 95 32 57 70 10 23 14 27 38 42 61 62 53 32 23 26 -0 -13 -4 12 24 26 58 98 93
-4 -8 19 19 12 4 4 2 -9 12 39 75 98 119 111 123 171 50 108 155 -25 5 52 15 23 17 60 58 60 66 64 46 32 22 9 46 32 11 20 25 43 58 79
17 6 22 23 8 3 14 18 -1 13 35 55 84 114 106 99 107 103 114 142 83 55 -8 5 27 65 90 88 46 57 59 50 37 12 11 26 55 51 24 28 24 35 30
43 28 24 5 -8 11 -9 -4 4 19 44 54 56 93 108 82 31 43 26 20 17 48 30 21 34 91 73 95 70 40 46 46 22 1 7 52 28 77 37 30 -10 18 16
26 16 15 18 11 -0 -9 3 12 21 40 55 65 78 75 80 90 81 66 61 34 154 59 38 88 98 78 81 41 43 35 50 16 8 21 26 28 49 40 45 20 50 61
25 9 8 28 21 21 24 28 33 40 45 55 60 82 105 95 88 94 125 158 111 91 86 83 86 90 75 50 78 105 55 66 52 42 25 23 97 64 44 55 93 121 102
29 26 18 18 38 26 40 54 57 61 63 60 64 70 80 88 95 140 219 236 297 257 183 76 49 63 87 76 87 98 89 98 81 106 55 44 100 74 43 41 75 106 103
35 31 26 27 57 57 77 69 64 62 54 60 71 66 56 77 118 167 175 227 269 286 338 304 128 56 51 61 71 99 101 89 69 82 111 72 77 69 48 52 47 90 96
49 47 49 52 63 69 86 108 57 38 28 28 46 39 -0 30 61 60 153 202 218 266 292 351 375 209 58 55 58 62 66 63 79 131 158 79 67 57 59 63 43 76 106
81 66 60 64 85 83 96 88 78 96 75 58 46 31 29 46 49 54 101 86 110 144 182 287 390 310 220 86 39 52 53 52 59 92 131 105 64 59 51 73 78 62 115
76 75 79 93 97 81 109 50 110 75 26 47 39 32 58 41 40 28 42 54 78 85 64 192 177 175 298 196 113 95 61 73 66 73 74 97 103 76 51 72 99 49 103
72 88 91 95 71 57 43 53 73 66 63 75 82 58 57 49 60 53 60 60 72 68 52 85 8 56 -36 -39 21 90 93 106 81 76 83 107 151 96 112 84 111 71 66
6 30 58 41 27 41 46 69 94 88 96 86 82 79 66 62 64 55 67 58 60 81 65 42 40 -29 41 39 -129 49 54 118 50 75 75 76 92 132 143 74 63 74 41
52 59 53 42 66 66 92 82 80 85 80 95 101 99 94 90 78 85 72 74 89 104 93 79 90 87 55 54 -34 7 35 48 39 27 44 83 95 123 145 129 50 62 45
85 84 76 91 101 112 121 110 124 114 116 121 124 124 123 114 117 96 88 77 90 109 134 138 114 85 69 42 1 13 43 25 34 11 81 110 79 84 87 112 112 97 104
98 108 132 142 155 146 183 137 170 172 171 176 174 168 151 127 105 107 99 90 89 97 94 95 113 115 97 80 69 22 42 20 39 66 73 101 61 83 93 109 126 89 98
109 115 133 141 161 170 175 182 191 179 169 184 150 157 134 134 123 118 112 106 93 114 113 97 93 107 129 121 81 36 59 33 39 63 84 108 93 95 94 118 95 156 117
130 133 143 150 198 192 225 217 197 193 197 180 176 191 111 121 102 74 67 74 77 100 125 127 122 113 111 125 108 86 70 84 73 60 82 103 131 96 102 115 120 161 157
140 136 124 161 217 207 215 196 181 180 180 179 160 184 131 131 82 62 95 93 96 108 122 107 127 129 127 122 99 127 126 67 78 69 77 87 92 85 92 108 139 143 146
80 114 126 155 209 198 195 181 176 175 174 140 163 176 115 114 78 51 80 86 112 120 119 126 147 143 138 121 103 97 81 150 120 172 126 79 82 97 86 94 108 113 159
50 42 88 124 163 199 130 195 212 199 223 220 166 123 57 62 65 68 68 81 88 82 91 124 125 129 167 179 145 109 52 112 197 191 160 172 151 115 101 121 126 101 125
2 60 66 91 126 139 157 148 191 165 149 124 118 150 141 169 129 78 62 69 75 66 63 75 82 133 135 149 146 142 151 118 53 19 138 181 158 130 147 126 158 115 120
65 55 47 54 77 119 200 243 200 219 174 162 153 160 160 131 114 93 90 98 115 92 87 98 96 100 93 105 118 123 135 149 148 83 16 49 114 121 126 146 190 130 131
116 101 90 99 100 152 175 247 224 190 202 211 235 234 219 189 230 167 181 179 181 136 98 98 106 107 109 103 99 93 117 125 131 145 107 79 76 122 165 137 76 143 189

GFSSE_con_3kmhel_006.txt.gz
Helicity
7 10 19 33 49 37 17 35 12 3 -4 -13 -5 11 25 28 69 77 87 57 69 78 57 25 23 28 37 39 55 80 87 84 63 46 37 53 73 65 48 38 26 27 48
1 25 7 32 49 68 58 43 39 48 23 -3 3 9 6 48 84 159 158 73 59 90 94 73 21 23 37 54 53 57 61 57 46 31 28 31 35 25 29 60 45 28 27
32 21 21 33 50 30 20 25 38 62 108 81 59 36 44 81 134 163 156 116 82 22 -1 30 53 16 17 39 48 43 47 45 31 14 6 14 36 5 18 54 84 54 43
42 34 27 42 32 12 26 51 66 88 101 86 62 88 55 84 129 142 99 185 79 -14 -39 40 11 36 11 22 33 44 42 36 27 15 7 9 70 12 4 57 81 74 64
20 27 27 30 18 29 25 26 13 32 51 53 81 90 76 75 69 60 72 97 120 18 23 99 333 56 -1 8 14 20 26 30 30 23 5 41 57 18 5 49 54 60 45
-2 23 11 16 40 42 44 44 40 33 42 44 46 75 110 46 63 83 77 37 58 103 138 162 181 91 63 38 4 -2 12 34 31 22 26 57 84 35 15 31 32 30 35
18 5 30 56 63 63 52 55 48 44 40 47 46 61 93 84 52 55 96 110 114 79 91 103 204 228 13 63 12 46 61 43 45 23 7 68 77 74 27 25 49 43 47
15 17 58 60 43 36 41 41 43 49 52 55 46 46 72 70 75 122 147 172 207 191 151 132 108 98 58 80 73 77 83 73 52 68 57 49 145 83 40 38 50 47 60
65 68 59 58 21 14 12 25 33 39 50 51 55 43 51 67 123 123 144 182 210 222 244 235 169 137 116 134 121 94 82 93 84 64 98 113 88 74 46 50 66 112 119
57 112 88 38 39 20 18 14 43 42 55 54 60 59 43 90 94 105 122 157 184 196 198 248 306 309 194 157 110 124 97 96 88 85 112 74 79 61 42 40 53 85 110
104 73 92 102 105 85 57 78 70 49 36 31 38 38 23 29 27 65 118 99 121 138 126 156 189 210 248 269 227 137 154 100 88 109 126 100 75 49 41 48 40 68 102
120 101 87 62 83 62 52 118 131 108 60 30 38 16 22 69 84 83 85 86 74 66 94 165 186 159 192 199 254 257 225 199 130 97 95 87 87 57 56 56 66 63 98
122 105 83 69 72 96 160 108 75 34 37 50 68 72 59 47 48 44 42 51 57 70 58 61 70 103 180 351 213 149 206 189 250 180 144 94 74 57 38 51 77 93 102
70 114 105 91 105 97 96 153 150 131 91 113 89 77 65 47 59 51 65 56 57 55 52 63 76 73 63 138 75 54 93 91 147 142 83 78 48 40 39 64 71 125 128
51 95 117 100 75 59 117 140 157 157 159 124 110 101 109 107 103 80 97 79 87 79 73 73 73 77 76 65 75 32 -120 98 79 120 157 86 71 50 56 50 60 90 124
71 133 125 85 66 82 125 130 142 170 153 161 163 140 124 144 122 140 127 125 100 106 99 92 91 85 85 94 83 91 47 19 32 8 66 73 49 37 52 43 38 64 72
109 121 138 100 118 121 179 160 133 152 166 203 210 193 190 168 160 166 173 170 165 105 95 87 81 92 93 89 72 61 40 68 76 40 11 104 164 21 33 66 69 87 90
163 186 152 137 202 160 174 204 172 225 156 184 202 192 180 172 160 146 158 166 134 98 103 105 104 101 94 101 98 57 34 47 40 38 56 90 99 79 66 48 70 44 33
189 201 172 187 182 198 207 191 261 314 189 200 252 204 181 180 164 155 170 169 124 108 98 93 110 105 106 106 110 96 56 29 38 45 41 52 83 108 94 66 44 56 64
210 202 190 214 198 225 226 199 299 249 173 307 242 257 245 217 183 166 164 133 92 86 100 103 78 107 112 95 86 78 78 96 99 84 57 66 83 71 90 94 100 92 56
225 212 166 159 181 245 206 247 217 250 197 221 176 258 267 209 172 153 148 195 140 124 145 89 89 95 94 122 121 49 37 120 122 125 130 92 77 65 108 119 114 86 100
164 125 149 117 152 236 194 198 161 180 185 224 224 274 312 192 202 192 139 142 133 157 125 102 85 95 83 93 114 94 -13 -11 142 174 182 201 119 54 67 93 109 100 102
169 153 103 119 124 190 221 128 198 249 213 279 311 320 295 185 179 153 158 162 142 133 112 103 83 69 77 87 95 95 69 17 -29 82 92 138 135 136 129 56 73 103 109
144 192 166 80 113 127 235 260 148 258 318 222 177 184 182 221 168 162 170 162 188 215 183 132 100 101 90 82 89 83 99 102 34 -71 9 65 93 101 75 78 83 89 83
133 157 194 149 110 110 153 275 353 294 288 271 251 250 275 292 325 341 299 310 204 239 269 193 164 124 103 95 91 85 85 75 78 58 -68 -58 -2 49 80 90 115 73 -20
150 167 165 199 168 167 192 199 348 415 356 333 288 347 395 376 374 431 400 372 322 279 253 233 184 156 143 136 132 113 94 88 77 75 53 9 -14 -16 16 34 48 72 41

GFSSE_con_3kmhel_009.txt.gz
Helicity
-41 6 21 40 63 63 63 52 65 30 14 16 27 42 42 68 94 93 167 213 149 89 52 53 70 65 34 38 35 39 58 68 56 41 31 36 30 40 81 126 102 76 50
-1 21 36 44 56 69 59 75 82 85 61 34 34 39 56 62 74 68 80 103 30 24 12 81 53 66 69 53 36 40 34 40 46 36 28 38 42 55 75 102 64 38 51
28 -0 14 33 40 47 56 62 82 102 126 125 60 43 53 68 73 92 90 69 122 97 224 134 95 78 118 123 44 28 28 32 31 25 23 39 68 61 47 67 82 77 47
21 5 9 45 62 54 33 38 41 64 102 117 97 82 85 90 72 79 84 87 79 88 136 138 98 116 195 82 90 14 5 11 14 24 24 46 58 35 26 51 85 60 56
3 6 22 27 18 18 22 29 51 59 84 97 94 77 54 55 60 66 79 78 63 72 135 126 109 111 195 324 29 89 25 -4 -11 10 20 16 49 44 13 29 85 91 75
14 18 28 46 55 44 50 62 59 51 40 60 78 84 75 69 66 63 76 76 100 128 106 80 102 116 168 228 218 30 41 -6 -25 -13 16 59 26 33 1 10 50 64 63
9 11 30 45 46 47 45 46 42 40 45 54 64 63 60 46 46 57 48 40 63 102 82 62 58 73 188 134 161 57 -8 -12 9 -10 5 84 61 59 38 18 38 53 64
20 21 5 31 28 27 20 25 27 37 52 65 72 70 68 70 70 85 122 148 121 84 78 70 63 91 114 147 61 -26 9 14 54 58 33 92 69 86 48 38 42 59 65
-28 36 13 22 9 4 9 4 19 33 53 61 80 97 87 92 92 97 115 125 141 143 168 166 81 72 83 118 104 57 24 70 61 66 72 131 85 99 46 38 38 51 63
127 102 61 79 26 8 -8 -23 -7 20 46 60 71 83 82 69 71 79 94 102 110 134 136 140 142 157 147 122 127 142 137 116 110 66 120 152 74 43 42 41 45 50 82
167 130 134 144 100 49 79 52 54 62 64 60 52 61 73 45 39 62 80 90 106 121 119 123 135 125 133 130 105 121 181 203 202 174 145 117 141 78 48 49 46 64 69
243 150 84 75 71 52 105 125 145 104 61 50 58 52 52 64 59 64 71 73 75 77 96 94 100 127 114 63 73 103 156 174 199 231 248 128 87 66 42 37 42 56 68
193 129 92 60 19 89 131 115 120 123 84 93 121 107 101 90 95 87 72 48 44 43 52 75 63 42 66 111 109 152 219 170 193 177 210 217 162 98 59 52 54 67 64
204 132 96 76 72 101 128 141 153 128 153 142 123 129 102 113 101 122 123 95 75 73 83 70 70 56 47 59 68 80 59 47 88 94 138 159 114 119 129 83 54 47 59
158 140 127 101 102 104 122 156 181 203 188 174 158 163 183 153 144 149 130 131 135 107 105 90 74 67 66 55 59 71 64 68 12 8 103 148 105 36 22 57 58 43 32
143 187 165 129 112 94 120 138 183 216 204 225 201 168 199 184 179 157 146 135 167 162 152 133 116 98 69 63 65 53 51 56 36 70 22 61 64 159 68 38 36 64 62
140 204 189 130 115 114 150 149 161 181 207 237 219 201 213 188 194 216 203 219 173 150 136 133 126 116 109 86 71 70 46 27 35 22 36 64 67 76 76 69 84 57 69
270 291 233 146 146 132 150 155 166 168 192 199 194 186 179 184 179 214 220 213 193 204 172 158 150 144 118 102 87 82 81 73 51 44 28 32 71 84 78 66 121 114 45
363 356 293 257 219 164 172 191 177 215 216 193 237 191 157 168 187 227 232 189 174 167 165 151 130 94 88 91 93 93 89 64 57 60 62 63 55 47 103 87 42 35 33
353 333 313 280 236 210 212 210 239 257 239 212 270 271 205 184 171 204 227 184 158 155 161 125 92 67 56 58 57 77 79 68 100 89 59 80 104 85 60 83 112 87 42
294 265 243 245 185 220 234 238 217 228 194 192 212 240 291 248 190 168 189 214 191 189 156 110 93 71 75 84 93 71 19 19 53 103 83 132 113 135 100 63 95 135 117
164 161 164 162 176 196 228 222 216 196 183 222 211 243 298 319 274 253 203 215 249 248 194 181 142 115 80 78 48 28 5 11 -36 31 59 81 119 110 160 122 48 57 53
116 138 191 162 164 214 232 252 243 229 230 274 276 292 319 341 297 280 248 225 227 236 257 226 164 114 109 104 71 50 32 5 -20 -42 -17 14 34 46 81 133 89 -14 11
76 137 143 166 164 159 225 319 310 289 304 314 308 284 278 263 297 294 242 249 266 296 359 335 298 228 151 126 85 84 90 65 -3 -52 -55 -46 -17 -2 7 57 93 78 29
192 164 100 131 155 143 182 225 288 313 314 324 306 294 287 297 285 268 321 410 431 362 357 295 229 265 163 111 106 91 78 66 50 19 -52 -50 -47 -49 5 19 21 2 10
198 172 151 164 165 177 213 214 273 298 321 388 391 426 391 428 486 528 547 488 415 357 352 374 235 302 240 134 101 121 115 102 75 48 15 -9 -29 -48 -35 -10 11 19 35

GFSSE_con_3kmhel_012.txt.gz
Helicity
-30 -17 18 51 91 73 69 68 40 2 73 54 55 96 108 101 91 64 33 52 83 74 85 121 138 159 139 119 82 51 45 53 43 23 -0 -4 18 39 48 30 45 55 87
-27 -8 11 30 37 56 79 62 69 32 61 41 46 72 90 88 75 78 84 118 153 173 141 135 93 154 183 240 186 105 41 27 22 9 16 19 35 35 30 30 36 40 90
-7 -3 13 24 34 40 75 86 76 99 83 66 28 71 71 69 82 87 117 161 175 119 72 117 97 245 152 131 209 213 117 40 13 1 11 26 27 27 27 28 29 31 66
5 15 8 24 42 42 64 57 63 84 87 72 60 72 80 75 84 84 110 118 62 54 76 95 109 107 190 153 236 317 344 99 14 14 17 25 21 18 22 44 61 54 33
12 11 -1 26 43 48 51 48 61 67 63 70 60 51 60 57 63 74 70 70 47 39 63 73 48 111 94 109 124 130 85 32 3 2 4 22 37 59 31 26 57 55 37
5 -2 28 54 69 68 56 46 27 36 62 83 99 86 67 62 65 70 55 45 63 53 21 22 37 85 91 81 148 91 113 -17 63 2 4 15 25 24 29 40 45 67 55
-2 10 28 48 60 59 46 31 33 50 77 86 106 114 118 91 89 86 83 56 47 65 76 48 70 98 93 86 71 51 89 31 -63 58 13 22 42 27 19 34 53 77 79
19 12 27 38 49 27 25 28 35 49 72 94 102 115 118 117 112 105 112 102 89 72 68 59 63 86 76 78 59 25 13 7 -22 82 39 24 61 51 11 40 45 58 75
62 64 40 21 -7 2 12 18 38 66 99 115 119 136 130 122 109 95 86 85 95 112 111 96 58 53 65 48 39 30 52 1 43 42 20 44 52 70 6 40 46 52 62
70 59 47 38 -5 -0 19 12 23 43 80 88 85 92 89 96 90 91 93 81 82 84 88 95 89 95 99 106 110 83 67 62 54 83 81 52 129 97 33 60 31 26 52
108 78 68 77 65 58 74 77 67 66 50 57 54 93 87 66 54 68 83 90 91 93 82 86 89 98 109 112 59 54 53 52 45 51 88 144 173 96 83 53 40 26 28
161 150 122 109 98 100 96 130 91 99 80 54 73 78 66 68 62 73 74 79 69 60 60 64 68 76 87 72 60 71 70 70 68 88 125 179 184 149 94 47 35 41 40
187 150 88 76 97 120 101 111 82 100 92 55 76 87 89 97 81 88 88 88 89 65 52 56 63 69 63 58 62 75 95 118 104 128 165 178 216 193 136 120 75 48 41
193 139 71 62 97 119 94 88 76 108 102 108 114 131 121 117 108 95 105 99 99 85 78 80 82 77 80 76 65 66 59 67 71 77 57 82 128 139 168 129 117 96 75
181 131 76 88 107 129 121 125 148 170 179 177 175 171 156 142 135 124 118 122 117 122 119 110 99 89 76 71 68 69 72 71 82 72 41 77 54 119 107 143 135 99 83
228 208 187 135 112 145 115 115 139 169 201 211 190 183 189 173 155 144 151 153 151 139 129 136 137 128 115 105 90 75 76 62 60 49 56 67 105 115 100 100 124 98 74
250 261 225 161 136 144 144 121 130 144 197 201 182 185 187 194 196 184 190 177 171 165 167 166 151 142 135 125 108 109 78 66 59 23 17 42 81 94 167 100 63 86 126
302 280 224 208 183 144 120 113 119 138 161 170 162 165 159 162 181 217 228 213 184 165 156 152 148 148 139 128 115 107 86 75 66 73 57 24 17 45 61 83 103 146 119
296 288 237 215 190 165 143 124 146 149 167 149 151 152 137 141 155 184 186 172 175 188 173 158 149 139 125 117 109 97 86 68 40 43 61 88 64 30 42 54 52 76 99
276 238 216 209 195 174 185 205 191 176 184 212 196 177 166 158 141 176 172 163 178 186 165 165 151 135 106 87 74 74 64 55 66 63 55 41 79 119 109 56 56 50 88
283 225 164 195 151 211 203 207 205 205 197 207 222 238 230 197 188 199 201 186 197 210 174 169 162 123 102 87 72 82 72 75 46 74 37 47 34 63 91 143 130 96 37
176 137 123 126 128 151 203 205 240 239 222 219 203 231 251 267 275 275 261 250 259 273 266 257 234 217 189 127 77 51 34 43 65 40 74 58 52 47 46 66 92 116 112
128 107 101 114 128 114 159 205 230 271 280 269 236 256 289 305 341 357 337 343 320 308 321 310 317 321 296 244 182 134 87 33 -0 -9 4 32 15 23 33 38 63 97 131
105 104 100 102 129 116 145 201 255 294 298 318 342 351 303 336 353 373 369 363 352 360 381 462 485 447 404 356 282 223 174 111 44 -13 -8 19 22 11 7 25 42 64 77
117 126 104 90 134 104 142 178 238 300 297 295 320 318 308 341 363 388 430 458 491 512 525 543 544 566 460 433 390 275 164 137 70 79 31 -1 13 -3 -17 4 7 24 51
140 129 136 173 138 121 116 155 227 263 270 312 284 325 344 406 508 531 620 701 703 715 748 666 611 499 308 287 388 281 152 89 49 64 70 40 2 -2 -17 -13 16 43 78

GFSSE_con_3kmhel_018.txt.gz
Helicity
-36 -45 -50 -73 -61 -37 11 20 47 88 128 120 117 108 123 130 128 86 101 103 101 80 57 46 38 49 62 76 68 76 78 76 65 84 91 75 78 98 109 76 57 51 45
-25 -54 -55 -62 -40 7 28 48 45 124 117 87 73 83 106 128 145 122 146 132 125 85 75 69 68 58 58 93 96 83 71 57 64 60 46 73 78 62 74 100 73 48 37
-33 -46 -44 -27 -6 -4 36 53 69 64 79 80 68 64 90 126 138 140 175 185 171 132 104 74 43 43 53 76 82 71 62 59 68 57 62 38 68 62 49 46 73 53 34
-27 -31 -26 -12 -6 8 26 46 72 79 82 70 76 77 84 107 122 137 149 153 120 124 118 81 51 49 69 67 56 47 67 112 133 90 75 85 60 76 37 26 18 23 29
-22 -27 -22 1 -3 15 25 52 51 58 64 65 68 79 99 122 124 125 133 141 104 74 69 65 56 74 91 70 61 133 136 144 143 133 94 90 111 99 65 19 14 2 13
-25 -18 -13 -6 12 24 29 31 38 51 60 70 68 66 74 92 88 62 55 36 26 56 59 76 69 64 57 74 85 118 140 124 120 103 77 73 75 72 47 29 5 -1 -3
-7 -21 -12 6 17 18 27 39 47 58 73 76 71 66 74 79 84 81 60 49 78 109 108 81 74 71 79 92 90 106 104 93 92 77 105 123 89 78 71 76 3 -6 1
-3 -22 -19 0 23 32 46 54 62 69 70 58 52 51 53 53 52 55 64 75 78 77 73 64 62 71 82 83 81 97 95 99 93 58 118 107 109 93 60 57 29 8 5
0 11 8 18 21 42 46 41 41 51 57 47 24 19 34 26 28 37 56 73 89 97 101 93 85 92 105 108 122 131 124 122 103 84 74 60 114 85 40 28 18 1 12
19 17 25 9 17 27 32 29 31 27 33 30 22 37 46 42 38 35 39 53 61 64 74 88 84 78 79 79 80 95 103 106 96 75 64 76 116 104 84 40 -4 3 21
-9 -3 7 12 20 33 44 49 21 20 20 31 41 56 55 51 49 43 44 59 68 73 75 75 68 53 56 61 73 76 76 66 76 62 36 68 115 162 171 129 80 34 26
2 3 13 27 45 58 64 60 47 37 40 37 45 50 50 54 52 52 50 60 64 66 71 72 76 74 67 53 50 62 33 34 50 59 60 82 99 107 123 137 144 117 102
23 8 42 74 66 73 57 65 61 62 60 52 58 64 64 65 65 68 58 58 62 69 70 76 74 69 72 69 68 62 55 47 36 31 51 60 51 103 121 142 146 142 130
65 55 76 88 89 69 57 73 82 83 84 71 65 81 93 90 83 81 81 75 77 76 75 75 72 70 70 60 54 55 55 61 54 47 50 84 97 102 114 135 143 140 141
90 79 71 81 84 64 77 104 120 104 101 103 107 111 104 102 102 98 86 89 88 87 81 80 77 73 73 75 72 56 45 61 71 60 51 81 75 96 115 127 126 117 102
100 109 103 98 89 93 93 105 98 103 109 124 133 128 115 119 128 129 123 116 112 108 103 89 83 81 79 78 72 69 64 34 47 71 66 73 107 87 92 118 125 112 109
145 139 143 109 99 92 100 94 91 91 113 123 124 118 118 123 127 140 144 138 124 126 125 118 108 108 104 92 85 82 79 84 69 40 38 66 87 129 136 101 143 148 134
168 168 128 109 92 76 80 73 74 74 93 104 110 119 115 118 128 148 159 152 145 151 149 145 133 122 111 106 101 88 85 74 66 57 33 19 49 73 119 161 168 176 173
146 151 118 98 61 70 82 83 77 76 87 97 107 136 143 143 141 161 171 160 175 185 188 183 165 168 151 125 101 93 92 82 70 76 55 52 54 43 44 88 150 162 182
143 126 115 85 61 61 82 101 102 91 86 98 118 153 163 184 185 207 204 196 216 225 203 209 192 178 170 146 139 120 108 95 97 84 77 65 71 62 46 43 60 87 178
128 128 115 127 99 108 101 128 135 124 133 125 114 126 183 216 225 253 257 254 274 275 244 252 251 205 180 194 203 168 150 119 122 136 109 67 63 53 25 48 29 25 59
62 62 93 59 81 109 167 175 159 141 111 111 135 128 187 209 248 296 322 323 343 343 316 309 350 342 270 284 266 274 209 168 183 149 144 113 73 18 7 21 52 73 56
16 39 53 52 76 112 137 154 150 137 153 162 151 134 166 189 202 272 301 339 380 432 407 387 407 434 359 372 358 320 275 202 207 213 174 149 108 63 10 9 29 50 93
48 60 60 82 91 122 155 162 156 153 167 176 186 207 175 166 179 193 237 290 333 382 406 447 496 500 536 496 466 418 439 364 346 261 227 221 178 102 18 9 8 16 50
106 123 150 197 226 227 213 176 130 116 148 183 196 162 143 149 160 170 198 234 291 348 387 416 500 498 558 576 643 597 629 549 509 347 293 220 187 87 20 9 17 22 30
186 190 199 219 205 206 168 117 64 81 118 135 104 135 153 163 139 134 133 185 282 376 417 487 631 734 819 827 880 817 790 707 689 652 424 212 109 -9 -49 -18 5 28 36

GFSSE_con_3kmhel_021.txt.gz
Helicity
-9 -17 -26 -32 -36 -40 -25 -13 -6 44 91 101 116 135 123 123 120 114 78 60 52 45 43 38 32 39 43 37 35 39 48 45 57 56 61 50 53 58 65 70 69 63 75
-6 -14 -36 -25 -20 -5 22 9 5 25 60 85 106 119 139 138 124 117 115 115 111 83 71 66 34 47 51 51 48 52 65 63 63 53 59 43 43 38 65 70 84 79 77
-6 -17 -13 -6 -9 8 31 47 46 51 57 70 91 124 143 154 164 149 143 123 115 110 104 92 60 48 44 72 92 93 71 91 79 80 73 47 37 50 51 76 65 64 63
-11 -25 -13 -7 -1 9 18 32 38 46 45 54 74 97 110 123 127 129 129 116 128 116 81 64 63 67 75 110 133 154 98 101 100 89 85 57 64 62 59 56 44 49 45
-25 -23 -23 -27 -18 -6 11 24 27 47 56 63 67 80 87 94 97 98 95 73 76 41 52 76 98 98 130 154 164 151 136 111 105 88 77 63 44 56 62 60 40 23 21
-39 -32 -27 -11 7 18 41 41 62 88 101 105 96 88 79 67 57 46 39 33 41 83 89 100 128 142 153 163 158 152 145 144 101 72 64 72 61 72 41 65 35 22 5
-26 -23 -4 13 20 27 40 53 53 62 71 83 90 87 78 73 64 51 41 51 69 84 94 104 108 125 130 131 134 134 122 104 92 82 90 106 91 114 44 50 62 14 12
-10 -4 1 7 18 28 33 42 59 70 82 79 65 62 61 67 63 70 76 79 71 77 92 109 121 121 124 133 137 139 139 126 115 133 134 108 121 100 58 50 51 44 20
-5 9 9 26 30 31 37 45 45 51 59 52 31 19 36 38 40 41 44 50 53 58 64 67 75 81 94 110 110 103 108 115 104 103 106 101 128 160 103 39 50 18 10
-14 -7 9 8 4 8 19 36 41 34 30 29 27 32 35 25 29 35 26 32 33 34 42 57 69 68 67 65 75 74 78 89 108 96 92 107 110 111 102 101 108 42 6
-13 6 13 16 20 25 35 39 35 35 42 37 33 38 35 31 31 34 45 48 49 48 54 62 69 69 61 63 65 66 56 60 66 73 77 103 106 107 83 76 98 114 95
11 8 4 10 25 33 36 37 33 32 35 34 32 37 40 47 46 47 48 55 51 51 59 64 70 69 63 69 68 52 57 53 48 50 64 82 97 111 103 99 110 128 125
8 -7 18 36 42 36 19 25 31 31 42 48 50 50 59 63 58 55 55 50 48 52 45 50 57 63 68 70 74 75 72 62 63 65 68 73 87 98 103 117 144 132 112
19 13 16 30 26 12 14 35 45 47 52 57 62 63 62 61 61 69 75 70 76 71 73 72 67 56 50 55 62 70 75 72 74 69 79 89 74 74 98 111 116 124 123
14 20 25 27 33 28 21 25 42 49 49 52 66 81 86 83 86 90 92 93 90 88 86 90 84 75 64 58 59 61 59 65 76 80 79 89 81 91 99 123 139 136 126
20 29 36 34 35 40 27 26 32 43 43 46 54 69 81 76 78 83 86 93 103 108 105 108 106 96 84 74 69 68 60 51 62 77 96 103 103 120 119 150 168 173 162
35 36 62 48 48 50 37 30 39 50 49 43 47 58 69 80 83 79 79 80 82 102 113 123 121 118 108 101 88 88 81 69 64 60 61 86 71 94 121 142 164 166 187
26 65 77 65 63 47 40 40 56 61 65 54 54 54 57 65 83 96 100 92 86 98 105 108 112 112 109 108 103 95 92 91 88 76 61 51 52 68 65 88 115 143 160
52 74 101 88 80 65 54 43 69 72 78 70 71 60 45 59 94 126 135 128 120 120 128 132 132 131 121 120 118 117 113 101 92 84 64 60 64 45 35 54 73 95 140
76 86 96 96 91 80 79 59 72 80 75 76 81 78 77 89 87 137 162 162 183 185 177 186 181 176 160 136 140 140 139 131 125 116 103 108 98 67 40 33 53 53 79
68 72 71 76 75 81 82 81 93 87 72 69 70 75 69 94 94 138 154 154 184 220 222 227 223 206 208 202 225 166 154 142 138 134 143 147 145 137 106 72 64 49 42
21 27 37 68 91 75 84 109 114 101 81 70 52 68 63 96 113 146 160 161 155 186 203 235 273 288 272 272 260 202 189 135 143 151 147 190 172 166 137 125 82 57 37
93 88 89 86 101 126 130 132 141 143 144 134 121 97 110 114 91 105 114 126 138 169 202 219 251 292 314 286 288 293 236 199 170 164 126 163 185 190 187 137 96 58 39
117 110 119 138 169 199 212 219 204 165 133 122 108 114 110 70 77 107 118 108 113 135 153 174 204 240 253 301 320 341 370 344 265 194 228 193 245 226 204 172 90 47 27
173 214 204 194 195 191 166 141 123 109 52 11 25 47 48 56 74 99 109 109 111 127 140 157 178 225 243 290 317 351 405 414 424 335 212 241 343 338 212 157 93 60 22
195 186 174 184 158 131 113 72 71 64 53 70 60 37 40 68 67 98 119 129 160 180 196 219 267 296 305 338 423 482 559 505 449 502 394 357 347 288 169 92 -1 -31 28

GFSSE_con_3kmhel_024.txt.gz
Helicity
25 -1 9 -6 -12 -11 -8 -16 0 22 43 58 73 97 106 108 114 102 93 82 62 57 45 37 28 22 31 42 57 66 67 65 66 57 55 49 47 60 54 56 35 58 49
23 16 0 -22 -12 -3 7 8 16 32 52 72 94 103 118 125 124 108 112 107 99 87 81 60 42 32 47 55 74 88 92 87 83 70 42 15 36 46 55 65 96 114 68
31 7 8 14 22 35 24 19 20 35 55 76 79 100 118 134 133 123 122 119 110 103 100 86 66 58 70 85 116 142 132 117 102 89 42 27 42 52 36 59 66 73 70
-2 -9 2 8 28 31 23 28 33 40 51 69 71 89 102 110 115 106 107 105 91 86 92 91 81 105 130 149 154 169 160 128 103 73 28 61 74 76 65 54 62 57 59
-16 -23 -16 -6 17 33 33 42 51 60 71 81 84 95 98 91 80 80 79 61 65 65 60 73 103 123 138 141 144 146 135 126 101 49 67 82 63 100 83 64 48 32 52
-22 -9 3 6 20 25 27 40 50 69 87 95 94 89 88 91 82 68 49 62 92 109 126 98 114 133 138 131 125 117 109 91 64 76 84 91 60 158 87 53 61 53 31
-3 -3 7 4 17 27 46 65 75 80 84 88 83 78 79 77 83 75 62 63 62 69 82 86 91 105 107 114 116 109 101 81 58 69 80 76 80 91 85 62 59 43 23
5 9 25 24 37 49 42 40 50 69 85 92 86 68 56 57 53 55 54 52 54 56 69 80 93 109 117 118 116 108 101 78 57 84 80 73 111 111 72 75 63 48 36
23 23 20 27 28 6 10 31 39 37 46 56 51 52 53 58 54 51 50 52 59 71 73 77 81 87 91 92 85 77 72 56 44 74 68 69 127 114 102 78 82 42 32
-6 9 25 25 22 16 34 33 29 25 31 41 38 35 37 38 38 38 36 54 52 50 48 51 53 53 54 58 56 51 33 12 49 64 71 130 97 90 111 98 73 49 18
-3 9 11 19 17 16 17 33 23 26 26 26 33 35 27 35 38 27 81 49 47 51 52 55 58 56 44 46 48 38 15 41 32 43 61 120 89 85 92 111 75 87 92
10 14 15 12 15 13 15 18 20 21 17 20 24 29 28 40 56 53 75 66 62 56 52 53 54 42 24 53 50 25 38 53 29 43 69 82 73 90 100 87 117 64 116
11 3 4 7 4 2 9 12 18 18 24 33 30 30 49 42 50 46 54 54 54 62 50 44 47 50 66 61 65 69 71 51 59 51 94 75 66 69 76 91 84 96 98
16 -2 -2 -6 -2 -1 -1 11 11 13 26 25 32 29 28 28 40 41 48 52 50 62 68 52 64 75 66 62 64 69 71 74 80 79 111 94 80 83 90 91 97 104 124
1 -11 -3 6 12 13 12 3 0 4 23 29 26 29 26 29 39 42 50 48 54 55 51 53 54 57 61 57 60 61 70 76 88 91 103 120 99 96 107 112 116 124 130
-9 -7 10 21 24 22 14 10 12 23 29 29 27 28 32 25 30 28 31 37 46 59 61 66 66 70 72 74 59 56 59 70 79 90 88 106 115 120 113 128 134 136 139
-7 -6 17 30 36 30 29 34 29 33 38 41 41 41 33 28 28 30 29 33 42 62 63 62 66 74 75 85 83 90 74 70 77 76 76 89 92 106 106 112 122 141 150
-17 3 18 41 46 50 50 56 46 48 46 47 58 50 37 33 35 39 33 37 50 72 74 67 65 69 70 77 87 91 88 85 86 77 70 82 87 81 84 101 102 119 141
5 17 25 47 55 64 71 74 64 61 65 78 77 67 68 55 53 55 53 52 66 89 103 93 82 85 79 83 81 87 98 103 101 91 79 85 87 105 87 123 110 113 117
21 31 32 50 65 90 91 86 68 78 81 89 92 92 78 76 72 71 77 68 72 90 98 111 111 119 129 116 120 125 119 119 121 121 103 98 89 87 99 125 74 71 87
71 57 58 84 138 121 116 102 100 104 103 101 95 105 83 85 78 78 98 99 105 126 105 90 100 105 125 141 144 163 151 152 158 156 140 129 119 119 89 124 121 137 61
123 113 136 144 158 148 117 120 119 114 121 120 100 111 90 98 68 83 97 85 85 108 123 125 119 138 142 146 175 165 169 178 173 134 131 163 132 131 127 123 152 160 143
137 154 165 177 171 165 141 132 129 117 122 170 165 126 106 70 57 85 89 90 104 127 130 116 119 117 144 145 167 238 212 241 147 144 238 154 139 146 153 140 166 148 133
160 160 159 151 136 136 142 136 139 122 113 133 141 102 72 35 72 67 51 69 82 98 108 117 130 135 149 162 180 225 224 190 215 263 278 228 196 200 174 203 184 139 130
160 148 155 148 138 128 122 113 110 114 72 98 127 172 135 103 78 66 70 65 76 112 128 135 132 148 167 179 199 233 263 253 205 279 279 302 222 245 230 253 252 183 164
155 160 154 157 138 117 97 74 81 143 116 132 165 131 123 93 71 65 96 83 107 138 145 148 187 230 240 296 329 347 414 445 487 387 298 236 267 218 210 272 254 187 179

GFSSE_con_3kmhel_027.txt.gz
Helicity
88 -10 -5 10 6 -4 -4 12 21 26 35 39 46 50 61 75 78 73 68 64 56 48 45 42 51 58 53 63 70 66 63 69 70 63 51 39 45 49 50 58 75 34 51
22 30 34 30 5 12 22 27 31 38 57 52 55 66 79 82 92 89 94 96 88 83 79 69 63 59 53 66 66 81 83 86 71 54 21 2 42 54 44 54 91 94 77
55 23 35 42 32 43 44 41 46 63 73 78 73 79 80 98 121 123 122 123 114 108 104 94 82 77 64 85 91 103 111 106 80 42 -0 -30 61 72 58 66 74 74 74
49 49 52 47 55 46 43 45 45 57 70 79 88 91 95 104 109 108 98 86 93 92 97 93 97 79 86 102 110 110 102 84 62 33 16 50 51 115 83 59 59 77 72
52 61 40 33 28 27 32 34 47 70 85 98 105 106 108 93 83 83 80 86 84 82 78 93 100 90 93 97 99 94 84 66 35 11 10 92 73 112 97 79 35 48 63
23 30 25 24 27 39 47 59 64 71 73 79 78 73 78 78 71 73 85 95 99 91 102 78 80 85 88 92 83 75 65 47 25 13 36 79 49 131 103 82 63 67 59
19 33 33 32 37 42 49 52 61 63 60 63 71 68 53 53 54 65 72 74 87 101 104 100 92 75 74 77 76 73 64 45 26 37 68 70 101 125 91 62 50 59 43
36 38 25 22 22 38 45 55 57 56 55 65 71 69 64 67 72 74 79 83 84 87 95 98 100 95 92 87 78 65 51 37 15 17 38 89 150 104 106 62 44 50 52
6 21 26 42 55 52 42 40 39 42 45 44 50 50 50 58 58 59 68 72 72 73 73 75 76 72 70 67 61 54 40 22 12 13 43 112 165 95 90 94 95 75 40
9 23 46 49 46 37 43 37 42 39 31 35 38 32 33 38 40 40 50 75 66 63 60 59 57 55 53 52 48 33 12 -11 -10 46 36 137 114 93 72 82 95 93 67
12 40 44 48 36 31 36 42 26 29 20 25 32 23 10 19 36 37 102 79 64 57 50 47 46 43 36 33 36 33 14 3 64 32 98 144 112 79 68 68 73 77 110
36 33 45 36 37 20 16 23 33 45 38 43 48 39 35 57 79 66 83 68 49 44 49 45 48 34 18 21 52 17 26 92 48 73 132 116 94 73 62 65 79 78 72
38 22 48 35 20 -5 21 5 19 23 36 52 41 50 80 47 63 43 67 68 40 35 21 39 47 39 110 83 95 95 76 62 57 80 169 144 102 70 63 61 62 77 92
34 23 33 28 20 3 -11 -5 2 7 33 30 79 51 42 36 67 55 54 55 43 56 86 47 69 79 54 59 64 71 69 71 70 89 171 145 114 86 82 75 75 76 82
24 22 34 31 20 19 10 5 3 5 28 44 42 69 50 45 60 45 50 36 44 43 44 52 60 62 74 61 58 60 56 60 65 92 125 147 110 91 95 102 98 101 107
13 23 30 34 30 32 13 26 23 39 49 52 63 85 63 47 53 36 34 36 29 31 39 54 57 62 67 75 80 73 69 69 65 80 78 142 115 107 105 122 128 128 119
27 19 36 47 56 51 42 43 47 75 65 68 73 77 70 46 41 36 37 45 34 37 39 25 39 44 49 52 54 67 73 67 73 107 91 92 126 104 119 132 127 120 126
11 39 37 53 61 62 70 77 82 87 71 64 69 72 82 59 57 56 50 49 44 49 29 29 40 55 64 67 76 74 88 99 84 99 97 96 119 107 118 126 138 135 129
7 16 30 43 60 68 101 84 115 92 52 64 90 72 101 86 82 83 72 55 63 59 58 64 76 101 102 98 83 97 111 112 125 121 114 112 125 137 145 171 123 129 143
93 92 73 70 106 120 151 116 94 81 65 80 83 112 175 120 146 108 81 64 71 75 79 86 103 99 113 114 93 113 137 170 190 174 156 152 147 149 139 197 216 154 121
84 77 141 140 230 140 140 169 152 138 160 132 143 236 151 151 143 112 100 94 88 93 118 124 114 106 125 121 130 133 144 120 166 193 193 193 177 184 197 148 226 114 145
143 138 119 147 164 166 199 210 153 134 144 149 112 238 160 178 100 82 114 88 89 128 139 113 115 129 128 126 126 130 138 152 187 231 251 197 171 180 207 214 167 155 178
143 146 163 181 180 188 179 169 151 110 130 157 192 111 92 147 118 167 173 125 134 129 114 111 114 117 138 137 139 152 165 170 158 121 191 260 198 236 216 236 254 196 201
120 143 170 187 181 154 141 149 118 111 133 154 106 168 212 130 146 148 118 123 115 102 73 70 84 161 184 175 175 182 188 190 186 171 135 154 219 246 252 216 231 264 265
132 162 167 161 139 125 110 105 106 109 110 81 119 178 108 139 151 119 111 113 108 68 73 113 126 124 179 206 203 265 307 322 315 288 270 224 221 176 253 198 240 316 224
135 138 106 85 84 90 86 84 78 67 77 80 99 127 158 146 125 117 121 109 99 61 92 148 265 294 245 216 247 287 305 260 321 316 317 308 349 194 270 302 218 217 332

GFSSE_con_3kmhel_030.txt.gz
Helicity
41 16 41 21 25 30 32 31 29 33 34 36 37 40 43 47 60 70 73 76 75 69 64 66 54 50 49 46 39 36 36 37 35 35 38 42 40 46 58 79 63 49 22
55 50 49 47 33 31 36 41 51 56 56 51 56 59 72 91 96 109 113 108 97 88 81 81 70 55 55 56 56 49 41 42 39 32 25 11 27 31 64 91 114 69 49
31 52 77 52 40 45 55 57 65 69 70 72 72 80 88 91 97 102 103 106 104 107 100 91 81 64 53 45 52 56 40 31 28 25 14 1 22 23 53 74 79 78 74
87 56 65 53 42 66 70 73 64 65 67 78 86 90 90 86 89 88 89 87 79 73 81 88 71 50 52 56 68 65 54 36 26 28 16 45 13 40 52 62 67 71 67
119 59 56 65 89 76 61 58 65 72 80 85 79 78 79 80 80 80 87 88 83 83 75 78 73 75 73 69 65 62 54 43 35 26 76 67 87 85 85 67 52 60 76
53 71 48 57 61 65 66 71 70 79 93 98 89 83 70 63 70 76 87 102 101 101 108 88 77 69 64 67 69 58 48 37 28 30 78 31 31 112 86 79 69 74 71
67 29 39 57 58 73 77 82 87 83 72 65 74 73 65 67 72 72 72 80 89 90 81 74 63 63 64 62 59 47 35 27 26 26 13 127 119 135 93 64 64 60 59
44 41 41 55 69 75 78 72 57 41 36 46 49 48 44 44 53 56 62 68 74 76 75 77 72 65 57 47 38 31 26 27 26 33 117 99 150 131 93 84 84 60 49
38 36 27 42 61 73 59 29 28 39 40 39 38 37 40 44 49 52 64 68 69 72 73 72 66 56 45 37 29 20 10 0 8 42 62 89 119 96 65 74 70 69 61
20 4 37 61 45 31 3 29 37 35 31 35 30 23 22 20 19 42 43 62 59 58 58 57 54 45 35 30 25 23 16 7 26 71 91 100 95 107 61 58 59 79 89
20 63 32 107 60 57 35 14 24 26 17 18 15 22 42 14 26 42 61 52 41 25 27 35 29 31 25 17 1 -1 25 56 65 35 123 99 96 90 68 56 54 56 68
86 32 85 57 66 13 46 40 12 21 21 13 18 48 47 62 72 62 101 88 52 30 27 25 -8 9 41 65 97 19 40 57 51 50 151 146 115 93 80 61 51 57 65
46 13 101 90 31 7 32 7 34 52 53 66 43 40 84 52 63 58 98 93 63 64 50 48 51 44 40 65 56 87 85 79 71 68 132 150 135 107 86 64 58 55 60
79 102 137 53 40 15 5 11 16 11 53 29 112 78 64 54 78 72 62 57 63 65 47 56 49 58 81 73 41 59 63 71 67 68 133 159 143 103 95 76 63 68 76
88 115 131 77 37 44 16 23 22 32 53 68 79 120 96 57 76 61 57 44 38 34 37 62 84 66 63 76 99 106 98 74 66 78 131 113 121 89 93 83 75 70 69
49 74 89 103 69 51 25 57 40 44 60 41 94 135 90 78 93 65 77 64 46 62 80 84 78 48 45 68 69 84 124 134 85 57 105 159 124 127 107 92 98 105 96
54 51 100 140 123 75 55 60 51 115 93 86 116 117 112 113 105 87 74 87 73 83 82 69 69 91 89 91 107 121 141 166 162 93 92 170 164 136 120 128 124 115 113
43 62 77 97 149 101 41 127 97 151 128 99 109 131 127 136 100 99 93 97 98 109 107 100 105 86 94 113 129 131 132 158 184 182 141 161 168 189 160 145 126 114 119
52 70 74 90 140 143 76 100 166 158 107 66 168 99 220 270 201 196 160 148 135 131 110 92 92 96 108 111 123 135 144 174 195 199 220 206 200 149 274 177 151 147 133
152 127 140 158 186 210 269 220 130 112 71 90 136 211 274 223 235 194 123 113 80 124 139 137 129 132 141 144 131 128 135 138 151 200 230 251 287 244 197 283 272 228 161
319 268 251 283 242 263 208 207 239 306 306 258 240 227 231 219 192 164 146 203 228 192 209 200 172 149 153 158 143 144 146 133 144 163 196 279 285 305 317 307 358 298 245
214 201 208 190 188 201 224 191 158 177 169 139 119 143 139 192 251 195 168 187 203 184 162 148 147 159 161 140 151 132 161 120 113 122 149 210 248 284 342 367 373 328 306
151 119 105 109 143 175 213 219 193 152 153 168 198 204 207 242 228 198 247 220 189 173 158 141 114 114 139 134 136 147 146 161 126 144 160 165 140 175 282 228 317 374 351
116 133 125 146 164 144 141 172 168 132 151 153 150 198 226 210 236 282 223 205 194 163 153 109 93 110 138 152 156 262 300 259 151 104 120 157 96 122 192 294 336 213 249
80 76 101 118 115 113 83 77 76 110 129 125 136 171 194 243 239 211 186 145 126 102 91 139 223 205 200 212 226 188 176 175 174 217 159 119 183 108 149 269 181 237 419
32 64 87 114 146 135 113 77 65 97 90 111 107 161 173 173 158 137 126 112 141 221 220 196 226 229 216 224 214 209 203 139 121 149 173 136 92 133 149 112 242 167 195

GFSSE_con_3kmhel_033.txt.gz
Helicity
8 15 42 46 46 43 37 29 28 37 39 41 51 52 53 50 51 50 55 62 78 79 77 74 56 48 46 44 32 33 36 31 31 41 28 32 33 53 69 88 33 31 28
72 35 40 51 46 37 48 64 64 55 53 49 47 52 63 75 78 85 96 99 95 89 91 94 91 75 60 49 44 54 56 47 37 41 51 56 36 51 51 74 63 52 51
64 55 64 62 54 71 78 80 86 72 61 58 69 83 87 82 82 88 89 83 77 77 73 70 70 58 45 40 38 43 43 30 28 46 82 35 17 19 47 32 66 63 68
70 81 89 78 75 84 86 81 67 63 74 85 93 97 94 93 91 89 81 80 81 68 62 61 60 54 49 47 39 37 35 30 35 55 105 41 12 65 55 43 45 53 65
85 81 70 76 84 94 86 81 79 86 103 110 100 91 90 82 72 67 65 72 80 82 71 64 59 59 56 53 52 47 43 41 45 60 84 65 62 64 68 73 72 51 62
50 50 58 82 83 77 69 71 85 106 109 93 81 79 75 63 57 57 56 56 59 61 62 59 56 59 56 50 45 40 38 40 50 70 120 56 79 39 25 83 65 73 64
58 51 52 65 71 66 65 76 83 79 64 54 57 60 58 53 54 56 57 60 61 63 59 54 40 34 30 28 28 29 26 28 34 57 75 101 73 71 70 59 56 57 50
38 25 41 49 51 59 69 58 49 47 39 43 48 55 54 52 55 58 59 62 60 60 58 54 47 41 35 29 21 14 4 -4 17 78 82 82 99 91 94 46 47 66 55
9 21 16 16 39 49 36 31 26 32 34 32 40 42 41 47 46 42 44 51 56 54 48 47 41 34 27 19 10 6 8 21 35 95 56 78 80 90 68 58 62 69 57
-1 -8 -23 1 13 6 -7 10 13 22 23 20 22 20 20 32 37 34 41 35 40 31 41 39 31 23 28 24 13 12 25 38 41 74 85 78 68 68 63 58 64 68 67
-35 -40 -43 2 -13 3 -25 -29 0 6 2 -14 1 12 24 14 5 42 39 43 19 22 22 12 9 -8 20 32 34 35 46 85 60 66 72 53 52 48 50 54 57 62 66
73 54 30 18 -11 23 7 -10 11 -10 -23 -38 -15 17 7 28 45 50 71 62 27 41 31 -1 -12 0 16 43 48 35 61 62 57 63 69 90 72 63 56 52 54 50 50
67 120 121 67 60 34 46 40 37 -12 -31 -30 -15 13 47 66 67 76 83 52 44 44 39 26 29 42 45 60 72 72 61 54 47 51 62 104 90 72 50 42 45 51 45
128 204 172 98 57 32 52 37 31 32 6 26 65 95 90 102 88 106 73 52 59 51 57 46 56 46 47 56 79 72 64 70 60 68 69 61 76 72 52 46 46 41 46
217 222 192 107 55 33 51 41 67 107 97 93 109 125 111 118 105 105 91 79 59 57 53 64 73 68 60 47 66 76 91 102 96 98 90 68 89 71 42 35 44 43 36
200 171 174 150 91 57 50 53 41 85 89 114 151 139 124 142 128 109 90 73 64 75 76 81 80 71 76 75 71 64 74 105 138 131 130 118 90 86 72 45 45 48 45
130 160 208 248 229 119 102 66 63 74 100 137 136 154 146 161 153 122 116 121 118 113 100 91 81 82 78 83 85 87 102 109 152 171 152 169 162 124 117 98 70 62 61
144 187 219 228 259 96 71 103 118 147 130 112 144 162 163 178 151 149 148 109 103 133 136 147 114 101 109 96 93 78 107 133 147 175 198 211 217 203 142 116 115 103 84
246 294 270 197 165 224 15 120 171 183 123 107 142 246 288 324 240 172 135 143 162 140 142 138 148 149 141 118 95 91 123 129 121 137 167 198 214 250 262 178 152 128 114
332 315 308 302 305 212 220 214 208 199 217 190 211 256 253 225 198 224 212 215 162 155 164 172 189 168 150 112 100 112 118 124 118 119 139 157 188 242 314 303 258 222 164
404 274 266 365 307 293 275 237 222 245 230 219 182 117 157 203 284 228 218 191 195 190 182 169 134 122 132 122 126 124 138 128 130 125 113 114 135 173 217 337 381 358 304
264 206 187 184 179 189 236 216 223 217 195 217 257 281 279 279 292 303 315 307 289 234 186 152 125 118 108 103 109 113 112 88 87 112 116 101 100 110 112 120 240 373 388
261 210 145 101 108 148 199 206 185 157 170 200 199 198 224 260 289 314 335 297 244 188 158 133 100 121 95 72 150 136 125 120 121 72 117 101 112 73 122 113 144 158 280
149 153 117 74 69 88 109 133 141 133 136 119 126 144 185 223 237 228 209 184 157 128 128 132 158 116 107 100 80 181 149 137 80 47 118 164 167 161 174 119 126 176 231
67 62 75 112 94 68 67 71 77 83 70 67 96 160 185 185 177 149 123 82 95 99 104 108 122 135 132 128 127 107 120 118 148 161 81 82 59 69 65 37 74 56 133
-40 5 66 101 136 166 182 185 193 204 192 180 156 164 150 122 111 118 79 48 47 71 96 104 124 144 131 144 147 137 129 99 118 103 111 110 83 1 51 47 26 35 65

GFSSE_con_3kmhel_036.txt.gz
Helicity
-19 -17 33 44 49 65 52 33 39 48 46 48 57 66 63 56 47 47 52 54 61 67 69 68 67 74 72 63 58 53 51 47 57 58 55 55 36 46 76 61 33 15 18
23 8 53 53 74 76 62 48 49 56 60 66 72 77 82 82 83 91 96 92 87 88 84 87 81 74 64 58 55 49 50 49 67 72 62 48 37 49 36 54 44 37 31
69 50 58 73 68 67 71 72 81 78 80 91 100 105 108 106 100 92 84 75 64 65 62 63 67 60 55 53 55 58 60 58 74 90 78 34 14 29 13 28 30 58 47
92 72 54 64 61 79 99 98 92 86 96 104 107 106 93 85 74 76 75 70 60 55 64 63 64 56 55 50 50 49 44 48 84 101 91 71 15 29 27 21 27 38 47
92 59 67 64 68 86 82 83 87 99 108 112 97 74 68 68 65 59 51 47 51 50 49 52 51 55 50 53 49 46 43 51 77 94 101 73 33 58 50 52 19 40 47
74 59 57 64 68 65 73 77 86 95 92 83 64 69 71 61 53 47 44 48 50 47 42 39 36 39 40 37 36 40 53 71 81 98 90 62 54 71 55 59 66 32 38
50 41 41 41 50 58 65 74 79 78 68 60 63 65 61 54 53 49 46 42 42 44 42 42 37 30 26 19 15 17 30 50 65 89 88 51 35 35 48 58 33 9 28
49 20 18 31 42 51 63 67 60 53 50 50 48 45 44 41 40 37 35 38 43 42 38 34 31 28 29 23 19 24 40 59 65 63 44 45 34 26 44 52 39 26 26
13 5 -2 4 26 53 52 40 40 39 37 32 28 31 23 18 12 20 20 21 21 21 21 19 16 12 18 20 20 30 42 59 72 74 56 47 35 44 36 39 49 42 41
-36 -34 -15 -5 13 10 5 21 22 18 19 18 20 18 9 4 8 11 15 2 -4 -8 -16 -24 -24 -17 -6 -1 7 13 31 71 93 72 63 63 41 45 34 29 31 41 50
-27 -28 -22 -6 -1 -0 -19 -15 -8 -14 -6 -0 -1 2 5 -2 3 25 22 20 21 13 -5 -24 -30 -29 -24 -27 -18 -2 25 39 55 62 50 50 37 33 40 38 39 42 48
-17 -37 -33 -14 -20 -3 -3 -21 -25 -30 -29 -28 -13 1 1 2 14 24 13 14 33 35 14 -11 -18 -21 -13 13 15 10 29 34 40 34 33 14 33 24 25 31 27 25 39
-2 11 -21 -8 -10 10 12 7 -8 -12 -27 -17 -18 2 25 28 29 44 33 34 45 32 35 23 15 21 14 26 40 49 43 54 63 53 42 24 25 34 26 17 9 10 27
33 56 -2 27 -1 -3 24 41 21 17 13 2 10 26 69 87 99 72 57 54 49 52 40 38 34 27 28 34 42 35 57 80 94 81 69 52 45 34 24 15 13 5 2
178 153 87 110 77 73 58 36 45 34 41 24 50 80 125 143 144 118 93 79 73 72 64 60 59 60 55 48 40 37 43 54 67 93 106 78 68 54 38 30 19 16 13
282 197 124 111 115 124 92 70 118 128 120 112 123 134 132 146 158 155 142 118 99 91 93 88 94 93 82 72 52 56 54 69 76 84 114 115 94 98 77 52 46 36 20
259 202 156 182 207 152 66 76 93 105 159 152 147 147 157 144 168 177 146 106 122 113 119 123 118 128 116 102 92 99 89 77 58 58 87 131 144 118 101 94 78 70 53
196 142 237 241 196 178 63 75 63 96 132 131 142 174 166 167 163 146 136 159 160 167 150 147 134 137 140 130 110 101 96 94 90 77 74 98 150 166 136 109 92 83 80
283 281 337 289 227 148 76 80 102 179 175 179 190 197 191 212 200 198 210 194 188 198 190 152 130 120 109 104 96 92 79 88 96 104 104 97 88 130 184 150 121 125 99
480 435 469 340 245 153 144 194 226 225 238 210 244 252 256 281 305 328 316 307 251 222 200 165 130 141 129 116 96 101 103 95 88 87 93 100 119 102 121 161 198 167 145
444 322 221 233 226 181 176 194 259 267 300 323 366 415 413 389 372 342 305 306 282 244 198 159 112 104 83 82 80 77 75 97 131 142 131 143 140 144 154 137 115 149 153
262 197 149 150 181 158 120 119 130 153 174 196 230 259 249 237 254 269 275 260 245 209 178 137 107 75 57 92 71 71 87 91 121 138 115 126 100 95 146 193 175 153 129
175 156 154 110 69 78 95 108 126 114 120 123 128 126 162 191 197 197 192 167 143 107 108 100 105 116 114 105 124 106 104 125 76 35 102 88 76 68 55 55 119 160 153
168 152 118 77 80 99 104 85 68 62 69 53 71 72 112 140 138 123 103 63 36 47 105 123 129 110 95 104 103 175 139 154 88 67 82 111 126 103 61 48 78 111 152
35 66 82 90 94 88 72 57 65 71 39 111 162 157 135 129 135 112 89 80 84 86 75 74 75 96 94 92 96 122 147 142 159 143 86 49 84 71 89 121 106 105 127
44 59 83 75 68 102 110 123 141 163 158 168 182 188 156 138 121 102 72 42 44 43 40 50 74 94 96 102 126 128 132 107 138 131 149 148 117 64 133 114 78 52 51

GFSSE_con_3kmhel_039.txt.gz
Helicity
-47 -34 -1 10 33 51 52 42 38 58 76 101 115 117 114 117 112 100 86 69 72 83 85 81 85 89 86 80 70 63 70 70 64 57 50 45 57 62 70 44 23 18 25
7 -23 6 19 45 50 44 45 63 93 106 100 105 115 120 119 107 95 75 68 73 83 87 86 82 76 77 74 73 76 89 86 67 76 54 25 33 52 52 37 46 33 39
24 10 21 38 58 62 73 88 96 92 94 104 111 107 101 99 94 84 77 72 69 72 87 87 81 74 69 70 72 82 97 89 74 72 57 20 3 42 35 23 11 24 39
25 22 36 64 74 82 95 99 101 94 97 93 101 105 95 88 85 77 69 60 51 62 66 69 74 73 63 61 61 75 88 89 90 89 59 48 12 20 30 37 29 43 33
11 28 57 67 64 86 96 89 91 98 94 104 96 79 73 69 62 54 47 43 47 46 41 40 39 43 44 46 53 73 83 88 81 76 68 44 23 21 33 26 22 28 37
36 38 56 57 64 82 73 75 89 99 97 83 58 55 56 44 37 34 34 36 37 38 37 34 32 30 31 29 37 51 58 62 65 54 32 32 32 10 8 15 15 -31 1
30 53 47 46 51 47 64 90 94 83 63 46 45 40 36 33 26 22 24 26 29 31 30 29 30 29 30 30 38 47 47 49 48 51 55 43 26 6 12 11 1 -6 4
53 55 25 35 42 55 67 67 56 44 40 39 29 24 24 20 13 17 17 16 15 18 18 18 22 23 22 26 35 45 50 57 59 59 46 37 15 10 23 24 9 -5 -10
30 16 34 30 29 49 48 36 30 34 33 22 20 9 4 -2 3 6 7 5 5 2 -3 -0 3 5 7 11 20 31 37 56 66 75 72 60 35 27 36 33 18 13 11
14 33 12 -0 10 23 17 16 27 25 18 11 -0 -7 -11 -4 -0 3 4 4 10 4 -7 -13 -10 -9 -8 -6 3 17 37 41 45 47 57 56 44 45 40 40 28 19 19
33 -10 -13 -14 -5 2 -3 -2 7 1 -5 -9 -16 -15 -3 -0 3 5 3 4 6 -1 -12 -17 -12 -13 -12 -11 -5 6 18 24 27 31 37 23 24 19 31 40 35 35 41
-30 -49 -50 -32 -6 -5 -5 -17 -25 -31 -33 -23 -13 -3 -4 10 19 19 8 1 5 4 -9 -17 -14 -14 -10 -1 -3 -10 1 12 31 33 40 17 12 12 11 22 24 23 27
-57 -62 -76 -50 -29 -2 1 -18 -32 -26 -21 -16 -1 3 5 17 31 30 32 30 35 18 22 14 20 27 13 14 15 20 21 20 36 56 43 24 18 12 7 7 12 13 20
-24 -30 -46 -68 -13 -22 5 6 -9 5 15 15 23 39 40 38 39 52 59 58 58 53 51 52 53 43 37 35 34 32 31 43 59 63 66 50 47 40 24 13 13 18 22
35 20 -9 -37 -34 -17 -0 7 10 15 35 44 60 62 84 87 91 108 108 93 80 77 96 111 95 81 65 52 51 43 48 38 42 68 76 51 61 63 58 48 40 33 26
115 74 27 10 -21 -13 10 30 24 43 28 51 72 92 116 110 131 147 133 112 129 153 141 128 122 106 95 87 76 78 66 57 63 82 86 81 60 55 45 40 43 47 51
139 103 75 84 96 81 68 62 54 54 65 85 95 122 118 136 134 135 150 181 177 177 177 172 170 143 127 105 99 99 97 91 80 75 73 85 94 90 83 94 64 56 64
173 176 162 149 178 193 87 101 66 95 118 117 124 135 154 167 188 216 216 213 206 206 191 169 144 121 106 81 73 93 105 104 90 73 54 68 92 120 138 133 123 105 75
306 316 299 327 302 201 97 142 160 195 217 220 211 230 283 302 301 288 285 306 286 229 222 179 154 115 88 85 86 103 107 98 92 103 126 152 139 129 144 189 193 169 150
477 432 409 336 227 142 201 212 279 304 295 303 312 320 328 330 346 326 346 260 173 163 198 182 131 106 84 93 109 113 111 96 120 168 172 140 142 140 146 169 179 177 215
425 382 218 189 154 163 158 188 214 198 188 203 208 210 239 256 240 214 192 234 209 164 124 108 85 96 78 77 45 59 61 73 141 140 130 101 114 145 151 158 151 141 159
200 170 173 108 91 106 109 98 99 101 118 85 86 125 140 160 159 148 134 121 126 124 125 117 107 76 66 78 79 56 120 77 69 132 91 127 112 73 94 113 115 145 129
75 52 90 116 115 94 76 75 84 84 66 66 63 101 126 131 130 125 121 115 102 65 61 65 94 126 128 108 130 142 154 145 95 33 66 56 61 73 95 135 171 163 159
55 11 17 6 31 38 47 53 46 49 50 -6 -7 31 82 143 149 108 91 74 52 53 110 112 122 123 141 160 129 157 146 147 113 80 116 105 122 126 163 183 184 190 177
-5 -4 -0 23 16 9 20 27 25 31 35 47 73 84 113 159 176 152 131 113 98 78 77 86 81 94 93 85 94 111 126 142 148 143 106 56 73 75 108 160 159 129 158
5 12 46 57 61 68 96 118 95 93 116 112 116 132 143 169 181 157 128 100 77 57 42 31 38 55 72 89 100 110 101 94 103 110 115 125 83 27 47 82 122 139 114

GFSSE_con_3kmhel_042.txt.gz
Helicity
-72 -61 -34 -16 7 21 43 61 83 105 110 107 116 127 124 123 115 101 98 97 94 99 107 105 108 99 95 94 81 66 66 83 79 74 57 45 49 64 57 28 30 32 36
-24 -54 -30 -8 16 36 47 64 90 108 125 130 127 129 132 130 126 114 109 96 86 85 85 87 88 91 87 87 75 65 73 71 71 60 59 31 33 47 47 36 42 34 26
-5 -34 -33 3 29 42 58 79 102 113 110 112 117 121 123 109 93 84 75 68 71 73 71 70 72 76 86 84 80 67 60 58 68 59 59 35 -1 24 60 62 54 34 33
-6 -29 -16 16 38 60 76 89 100 92 93 98 113 107 77 64 54 47 41 36 47 51 44 45 46 53 64 69 79 78 75 74 71 56 47 43 11 13 43 46 42 45 49
-14 -19 -4 35 65 74 83 82 75 81 98 111 83 56 48 38 33 28 27 30 34 35 34 34 39 45 51 53 56 53 49 52 52 43 33 32 20 -7 -11 -1 2 11 49
-19 -15 15 40 59 68 71 69 87 110 99 60 41 32 24 17 16 18 18 22 25 27 31 37 40 42 44 44 48 45 41 41 38 32 21 15 18 13 25 23 26 31 40
-11 -2 14 37 53 60 60 77 92 79 47 29 17 10 9 11 14 13 10 12 17 21 24 26 29 31 33 36 37 39 40 38 35 35 38 34 27 16 21 28 33 31 32
5 11 17 44 44 45 55 70 64 40 22 13 3 -2 2 3 3 3 5 5 5 7 14 19 20 24 24 28 32 33 33 38 37 46 55 56 60 65 58 54 51 52 51
-5 8 23 24 25 36 55 54 35 20 6 -0 -6 -2 -3 3 1 -1 -0 3 2 -1 -1 9 18 22 25 30 31 32 26 32 37 44 54 51 49 53 57 57 50 57 63
-22 -1 14 20 23 28 36 29 19 5 -9 -6 -9 -7 3 1 1 3 4 2 -2 -1 2 6 8 11 14 10 14 22 23 21 23 28 36 44 51 48 42 41 40 37 40
16 22 -1 6 13 33 18 -4 5 2 -4 -13 -15 -6 4 -2 4 7 3 -2 -2 1 8 5 -0 3 3 3 2 2 6 1 14 22 29 20 28 26 25 33 41 36 35
-24 -42 -20 2 14 2 -16 -10 -10 -16 -25 -27 -23 -9 3 9 15 15 15 8 11 14 25 20 18 18 21 18 12 11 4 6 9 13 26 25 28 29 25 22 33 33 34
-58 -56 -46 -19 -23 -24 -27 -25 -32 -23 -26 -18 -9 -3 14 25 29 29 37 41 43 45 56 59 55 51 53 42 29 24 19 14 20 22 22 29 36 35 24 21 26 21 27
-42 -65 -53 -54 -40 -49 -37 -16 -14 -8 -3 -3 -0 21 35 35 34 29 47 63 75 75 89 95 97 94 92 77 59 54 54 41 36 35 36 36 42 49 48 47 41 40 43
-28 -36 -44 -40 -69 -70 -57 -31 -6 -2 4 17 19 43 66 65 57 63 74 98 119 109 125 130 125 127 116 104 90 70 62 64 66 71 75 85 93 98 90 84 70 55 53
12 -2 -2 -4 -17 -27 -23 -11 -18 -2 8 11 30 53 70 80 85 102 140 163 168 145 135 139 136 136 127 105 89 81 64 52 61 86 97 110 132 134 126 118 116 110 92
25 7 52 74 69 57 57 46 21 -1 16 48 55 95 118 127 144 152 170 185 173 188 207 188 166 146 139 108 91 74 58 44 57 94 117 124 141 180 195 184 163 150 134
102 160 194 182 169 194 172 100 40 56 88 126 151 168 180 178 180 200 209 203 209 195 186 158 117 119 133 115 103 72 57 51 85 113 118 131 148 159 198 267 255 230 218
247 330 371 303 296 256 273 30 62 137 180 185 179 177 186 190 214 212 209 241 199 179 115 129 109 116 134 124 114 98 108 113 132 148 195 182 172 172 170 229 273 259 274
413 467 470 407 379 263 193 230 207 174 161 124 125 114 118 117 126 168 165 141 172 185 172 165 152 152 134 123 128 132 145 137 173 224 199 181 153 132 129 139 129 152 230
361 435 343 309 251 197 119 75 85 65 46 76 84 90 96 104 125 134 140 149 151 156 151 145 102 96 86 101 60 65 30 45 126 158 150 141 153 117 78 70 77 94 109
221 135 115 83 65 30 22 15 32 30 51 55 40 65 92 115 116 116 136 158 162 133 120 99 94 77 65 82 81 70 138 161 163 170 131 122 146 96 100 123 123 132 136
-21 18 9 -12 -10 9 42 50 50 61 67 72 68 64 64 95 103 107 127 142 141 109 102 76 83 96 91 75 116 107 160 181 146 138 139 125 82 61 98 156 180 167 172
-9 -39 -32 -26 -0 2 6 31 50 70 73 69 91 105 103 138 153 150 164 159 125 87 99 86 100 98 122 143 142 163 161 162 112 63 122 144 145 161 156 165 158 169 165
-0 -38 -16 23 41 43 57 67 67 65 82 91 123 140 139 167 187 184 170 138 115 106 98 83 59 50 61 66 81 96 112 124 117 99 82 69 122 130 140 130 119 121 124
-14 -2 -1 34 71 71 89 99 108 119 129 161 155 139 158 173 165 143 134 132 116 87 42 16 19 43 75 103 101 85 73 66 59 81 109 118 102 81 91 84 114 120 135

GFSSE_con_3kmhel_045.txt.gz
Helicity
15 1 -15 -1 12 28 40 37 53 85 111 113 101 96 103 115 106 96 83 82 98 101 96 91 85 74 65 57 52 40 41 59 70 63 64 49 62 63 61 50 40 51 48
15 -19 -25 -0 20 41 47 46 75 100 106 102 101 116 135 128 116 100 82 76 76 77 76 74 74 71 68 69 62 55 49 40 33 51 49 26 52 69 68 64 61 51 39
9 -14 -17 -1 26 46 49 61 89 103 101 102 119 126 109 89 75 60 48 37 33 40 52 58 61 65 65 61 67 68 70 62 48 35 26 33 55 71 77 72 68 58 51
8 -5 -11 6 26 34 49 66 85 89 96 104 110 88 63 44 29 21 20 19 21 28 33 40 49 47 45 43 45 42 37 40 43 41 31 37 40 60 69 62 70 69 65
3 -8 -6 10 20 31 44 60 81 95 98 91 61 44 26 17 15 20 24 22 23 23 29 37 45 47 43 38 37 35 34 29 22 18 29 31 28 43 58 55 48 59 71
-4 -9 5 8 21 35 55 70 84 91 72 44 30 20 11 7 7 12 13 16 22 25 30 36 37 38 38 35 39 43 43 41 23 31 28 31 40 57 49 31 47 60 72
-9 2 2 8 28 39 59 73 76 58 34 23 15 5 1 -1 3 9 13 15 19 25 29 32 34 34 31 29 33 35 37 33 37 47 46 44 46 63 70 89 74 64 66
-2 4 -1 11 20 39 60 62 48 34 27 17 9 -4 -6 -4 2 7 9 10 19 24 28 29 30 35 39 36 33 33 33 42 44 53 54 50 63 63 56 54 53 50 51
-2 -1 1 3 11 35 51 47 31 25 21 7 -1 -7 -1 1 8 9 16 20 25 25 28 36 37 35 29 30 25 20 17 21 28 34 45 45 65 56 50 47 46 48 45
-1 -6 -5 3 5 22 34 25 22 16 3 -1 -6 -3 3 12 13 26 21 26 26 30 32 30 26 34 37 30 21 15 10 -0 20 22 28 40 53 56 46 41 43 47 49
-19 -27 1 -0 7 28 23 13 11 3 3 -11 -7 1 5 5 15 23 31 27 31 36 38 36 39 40 39 43 37 31 7 12 9 11 12 35 44 58 61 47 42 44 45
-19 -16 -17 2 22 16 2 -1 -0 -6 -17 -23 -14 -4 -0 11 17 22 33 38 41 48 54 60 60 54 52 58 52 44 39 30 25 16 15 27 29 31 34 39 50 60 61
-22 -11 -2 -0 -7 -5 -10 -10 -19 -19 -15 -11 -4 -0 4 7 19 29 36 44 56 69 66 72 83 90 90 80 74 61 56 48 42 36 36 34 43 48 40 35 34 32 30
-45 -21 -15 -25 -4 -8 -7 -11 -7 -8 -10 -4 2 5 8 16 29 37 48 67 81 91 95 94 103 107 109 108 99 83 73 60 51 44 44 61 74 76 77 74 68 58 53
-55 -37 -24 -20 -7 -8 -7 -5 -7 -5 -2 6 11 16 25 29 61 75 90 93 101 102 113 109 120 130 125 113 99 83 73 61 56 49 46 69 101 116 123 122 117 114 107
-60 -25 2 19 17 8 13 15 -2 -4 -0 8 21 35 34 63 93 93 101 116 126 129 132 131 152 144 118 125 119 104 83 66 56 51 41 47 122 175 191 196 191 179 166
-23 31 71 90 82 71 59 54 60 42 19 24 79 84 94 117 105 114 129 151 158 179 170 198 146 177 160 155 161 147 146 130 90 66 67 88 121 182 234 242 232 220 208
10 80 150 185 203 206 206 186 60 -39 -17 32 48 66 91 103 108 126 143 174 160 205 182 177 147 161 130 165 138 123 125 111 111 123 146 173 192 193 191 253 250 232 231
78 164 235 315 322 315 284 153 298 -17 -35 -33 12 50 60 79 111 129 150 135 167 161 188 187 179 153 130 134 128 141 136 136 142 161 188 203 218 215 200 206 221 201 218
202 268 305 353 392 317 298 112 42 58 48 46 39 55 83 97 109 119 136 161 168 160 155 156 163 158 154 169 158 147 141 133 167 204 228 210 198 183 176 166 137 132 163
179 196 194 170 128 150 87 50 -5 -7 33 59 71 83 97 108 117 127 134 140 129 135 118 112 109 126 121 106 81 105 67 54 87 146 192 187 192 179 166 124 103 104 102
44 80 114 113 54 21 10 -55 -33 9 39 63 70 70 66 79 93 125 126 125 115 109 118 112 102 88 68 67 63 45 101 82 126 161 186 176 191 187 187 147 161 166 162
19 18 11 -3 -7 -26 -53 6 37 59 67 54 71 102 145 162 151 154 155 139 125 110 112 101 96 99 107 87 101 123 177 224 234 194 201 178 183 149 128 128 138 149 144
-23 -39 -31 -39 -18 5 27 31 42 63 90 116 141 161 146 152 165 166 154 139 130 117 117 118 117 124 118 159 134 136 166 196 201 185 142 152 112 101 108 103 124 124 138
-10 -32 -28 7 46 79 89 85 93 125 137 139 141 131 137 149 146 144 132 126 131 130 122 118 120 110 104 121 148 170 176 168 131 128 134 80 42 45 79 103 117 91 95
27 42 89 166 157 116 119 122 132 143 123 129 159 148 139 136 136 134 134 121 105 100 112 121 124 111 111 113 109 103 111 131 104 96 88 68 67 47 71 75 76 90 78

GFSSE_con_3kmhel_048.txt.gz
Helicity
38 20 -9 -12 3 17 32 64 77 80 89 87 81 81 86 91 89 84 74 67 66 68 70 71 70 66 65 63 60 59 52 44 34 21 28 51 69 77 80 88 114 71 64
59 13 -3 5 8 19 35 61 70 74 86 90 92 91 96 87 79 71 62 54 53 48 46 47 44 44 43 41 43 47 44 43 38 34 7 14 58 81 86 84 102 78 69
51 26 8 10 18 20 38 51 56 74 83 82 84 94 81 66 42 31 31 32 36 44 39 34 32 32 36 33 30 35 40 38 32 10 6 38 82 77 78 79 76 78 69
45 15 13 14 23 25 36 44 63 73 66 65 82 77 62 42 25 19 21 26 34 37 34 35 38 39 39 37 30 26 30 29 16 -2 27 42 54 87 99 97 78 94 110
51 13 16 14 17 29 40 63 72 60 61 79 71 55 38 31 23 19 20 20 26 33 36 35 35 32 35 40 43 46 45 34 -2 -2 42 52 55 71 102 108 93 90 92
36 -2 9 5 21 35 61 60 56 63 76 70 50 34 28 21 16 15 18 18 29 32 36 36 37 36 38 40 44 46 50 51 18 46 46 36 57 61 59 60 63 66 71
16 17 4 2 26 41 45 47 65 68 60 41 29 24 19 15 16 18 18 28 32 36 30 33 32 39 42 42 45 42 42 31 45 54 56 68 73 77 66 52 52 63 65
-9 15 19 15 22 26 47 61 63 51 31 24 22 19 15 19 19 22 22 32 36 39 41 43 39 38 32 32 33 29 22 16 26 43 45 59 83 88 75 67 55 52 55
-25 12 8 6 11 34 56 54 47 28 22 22 21 19 17 20 19 28 34 44 41 44 49 44 38 30 26 26 26 19 5 -13 9 26 31 65 69 68 67 66 62 54 48
7 5 7 3 10 20 33 44 28 22 19 21 20 16 20 21 25 29 29 42 44 47 49 49 42 34 37 40 38 27 -5 -37 21 18 30 43 47 52 55 54 55 57 56
9 11 4 13 25 35 32 29 23 23 20 20 16 12 1 8 19 18 61 46 46 47 52 58 58 49 36 60 59 36 -0 47 27 33 32 53 38 34 36 37 37 41 48
-4 -1 17 34 50 36 28 20 15 16 4 4 3 1 1 13 22 28 45 41 47 46 59 59 59 43 31 61 73 44 61 54 40 33 53 56 46 44 39 33 31 33 38
-5 26 41 60 58 44 33 18 10 5 -2 -0 5 6 22 22 23 28 36 37 43 53 51 59 60 71 87 78 90 79 75 53 72 58 76 75 49 45 47 48 47 48 44
9 37 50 54 43 39 29 23 16 11 9 12 18 18 24 24 36 41 42 37 42 56 65 67 77 87 93 102 105 102 94 88 94 65 70 115 65 54 57 69 74 69 65
13 27 24 19 22 29 32 28 25 21 20 25 16 22 31 37 46 50 64 57 67 62 73 90 109 105 103 103 111 102 90 95 75 52 58 126 102 80 90 115 130 126 118
-10 1 12 19 26 26 36 42 33 36 37 22 12 36 65 79 92 101 109 104 112 109 129 142 132 131 127 98 106 121 79 91 93 82 90 80 128 102 138 164 175 176 169
4 31 45 56 42 58 79 90 83 98 48 5 20 55 85 63 74 78 70 114 147 146 134 145 149 142 122 126 118 117 96 101 89 107 88 98 114 110 122 182 204 194 194
20 50 98 136 170 170 197 235 181 138 61 12 15 43 41 71 68 57 81 119 115 146 155 146 149 151 152 141 134 117 111 94 100 102 108 132 157 136 124 181 190 184 183
48 99 151 189 264 321 412 350 205 67 8 66 -22 -13 21 47 69 77 104 124 125 135 158 154 159 142 137 139 142 132 125 116 111 130 145 137 142 154 179 219 144 135 166
91 137 177 244 275 235 179 261 18 -85 27 52 39 45 51 58 60 63 91 109 113 133 136 132 110 110 97 108 108 90 104 104 116 143 152 144 166 162 158 173 166 169 99
128 139 126 147 153 124 79 63 -7 -4 42 56 54 51 48 58 60 75 96 109 101 122 109 96 104 111 103 112 102 108 70 25 54 103 103 149 172 166 168 195 176 185 170
76 84 88 84 49 11 -5 14 25 32 52 69 77 88 88 87 95 103 123 128 126 116 108 104 96 93 87 113 92 93 145 169 106 210 165 137 188 171 187 200 173 163 156
78 58 49 42 19 16 42 52 61 61 77 70 93 102 136 135 137 137 142 149 143 123 132 119 122 110 124 113 136 126 177 235 308 192 172 177 177 180 163 160 140 121 109
79 58 36 16 24 43 53 88 97 76 100 155 163 179 189 161 147 145 148 148 142 135 126 119 130 128 130 146 143 142 168 181 217 261 241 168 85 101 110 103 111 96 78
91 80 70 99 112 144 116 88 105 138 151 171 179 158 130 108 109 124 137 140 137 138 150 150 135 132 127 158 155 156 155 157 137 177 182 161 144 82 61 60 91 97 79
102 127 117 132 118 107 125 136 166 176 165 143 114 89 117 121 135 142 132 132 128 133 127 135 138 118 107 89 98 75 87 114 90 116 114 122 121 94 100 79 98 114 107

GFSSE_con_3kmhel_051.txt.gz
Helicity
131 77 51 29 11 21 33 40 54 63 65 64 62 62 69 81 78 73 64 55 51 57 58 52 48 44 41 36 36 33 26 18 16 7 -1 36 72 87 95 119 184 73 72
88 50 49 33 24 32 37 51 65 76 69 65 59 74 86 77 61 48 35 27 23 26 31 32 30 31 31 30 30 31 28 26 12 -16 -11 26 72 90 87 102 124 82 71
70 55 30 38 34 36 45 58 71 79 67 60 66 80 71 56 42 31 24 19 20 17 18 27 34 36 35 32 27 25 20 8 -8 -34 -24 13 129 94 80 69 70 85 71
49 37 22 48 39 31 47 52 68 60 59 64 67 60 48 37 28 27 21 16 14 13 20 29 34 35 35 35 30 25 17 -9 -36 -23 -13 36 90 151 87 79 65 89 79
43 15 63 49 35 40 51 50 53 56 72 72 55 40 31 27 29 31 30 23 20 18 21 24 28 27 28 31 32 30 16 -5 -36 -33 56 44 46 111 87 98 87 80 86
47 39 87 35 37 45 47 48 51 78 82 62 41 32 27 21 27 31 31 27 25 21 26 23 26 24 28 28 31 29 30 39 69 22 20 148 110 79 71 74 88 80 69
30 51 47 27 38 40 37 48 80 83 57 52 44 34 30 31 31 32 34 36 36 30 30 30 32 26 33 29 28 22 14 10 29 36 16 128 76 76 64 64 57 56 56
55 52 42 35 36 34 47 72 74 59 55 47 41 38 36 33 31 30 35 41 43 38 37 38 31 31 25 19 18 10 0 -8 11 37 11 83 73 69 66 59 46 45 48
39 55 53 51 39 54 53 61 56 54 51 44 40 42 31 26 24 29 41 45 42 38 39 36 35 32 26 20 20 8 -13 -18 1 23 13 92 54 52 55 57 55 51 48
12 -8 12 17 11 19 36 57 58 56 49 42 39 25 20 18 17 21 37 47 39 35 36 35 32 27 22 25 26 12 -7 -15 -3 19 66 50 48 45 44 40 38 34 32
-27 19 35 25 20 29 38 51 48 52 38 28 23 3 -3 10 9 4 76 52 36 35 37 39 33 21 21 27 18 18 -4 50 18 44 62 65 53 39 34 36 35 34 36
35 40 47 48 38 31 46 31 40 37 16 12 5 5 -3 28 54 77 51 38 32 34 35 41 41 29 11 17 56 48 58 81 21 67 78 97 61 43 38 32 33 38 45
20 44 39 56 49 47 88 33 27 20 23 14 19 10 45 22 32 19 40 48 24 24 14 50 63 39 96 67 90 94 88 69 75 82 104 130 90 57 33 35 39 46 57
22 35 45 58 73 89 57 35 45 34 24 10 23 20 20 24 44 34 37 45 37 62 69 42 48 104 67 68 78 86 66 54 85 85 77 113 91 73 48 47 49 62 81
22 50 62 64 67 62 65 79 86 56 52 89 44 53 42 33 53 40 52 73 117 84 86 94 108 131 97 64 115 63 65 65 70 72 90 124 111 86 77 64 82 91 99
58 60 54 56 55 62 96 95 83 112 71 68 52 40 34 79 84 76 101 73 94 123 156 141 162 114 122 97 92 93 72 60 69 88 89 90 119 109 96 80 94 115 131
42 50 46 65 75 107 143 184 143 146 154 132 28 8 41 83 78 101 137 137 109 116 135 146 158 104 115 101 102 88 103 86 116 103 85 71 92 114 109 104 103 117 129
54 72 76 97 174 293 311 317 307 233 134 34 93 -42 -9 60 85 78 90 83 77 92 85 104 117 144 113 106 93 99 113 104 91 78 71 83 189 157 149 136 131 101 104
43 70 129 192 340 336 304 252 262 453 208 7 71 -70 38 46 43 38 39 56 53 91 126 124 130 109 105 85 85 99 105 58 79 99 98 139 178 155 196 173 149 92 81
58 115 162 295 260 262 263 205 193 224 217 71 39 61 20 37 39 42 68 59 44 85 119 157 103 94 90 87 94 106 77 113 74 105 55 147 138 192 144 195 150 149 163
137 237 308 213 145 156 127 90 61 33 48 16 42 61 41 45 30 43 82 86 86 99 111 94 96 80 81 82 94 89 104 39 89 92 82 151 219 134 147 102 121 163 139
158 205 146 97 90 51 54 59 52 47 39 59 87 70 84 65 49 52 61 95 129 104 121 147 118 112 106 121 112 119 125 118 92 303 335 238 157 149 143 138 141 86 74
150 121 67 53 34 22 59 80 113 154 119 81 74 62 97 73 98 118 120 116 134 127 147 167 144 127 132 121 133 158 176 197 224 178 186 262 256 238 172 52 56 44 48
103 74 77 82 78 95 81 135 106 65 86 158 152 166 159 150 164 139 116 125 134 138 139 163 179 197 148 167 126 112 126 153 234 246 199 142 101 96 112 70 68 125 125
104 78 97 107 145 136 145 108 91 102 137 176 166 167 161 106 106 99 87 125 135 142 151 144 116 122 120 122 150 188 152 120 84 119 173 129 109 110 114 93 97 102 84
109 111 124 122 119 119 126 141 149 177 184 157 162 136 111 126 120 124 149 153 127 114 117 153 189 155 136 101 109 80 88 80 66 88 86 87 108 84 76 90 98 72 61

GFSSE_con_3kmhel_057.txt.gz
Helicity
115 104 82 98 77 70 41 42 51 59 67 69 71 74 68 60 48 32 30 30 25 26 25 25 25 22 17 13 5 -1 19 37 44 41 47 65 74 78 79 52 54 40 56
164 121 104 108 87 62 47 52 56 58 67 72 73 66 50 40 34 26 24 19 19 22 24 25 22 17 10 2 -4 -6 18 24 30 20 31 47 38 56 65 64 51 45 43
153 115 122 114 93 50 58 58 60 74 77 77 69 50 40 33 28 26 21 16 18 21 23 21 19 13 13 15 5 2 11 23 27 22 20 -0 17 55 57 58 58 41 52
144 121 103 111 78 59 68 66 71 78 79 76 63 41 35 34 31 25 19 15 14 24 26 25 21 19 14 9 7 15 68 126 41 47 23 7 29 57 67 61 59 52 40
199 156 86 115 86 76 84 77 71 81 82 74 49 32 39 36 26 21 23 20 22 26 25 23 24 20 15 13 8 17 101 165 149 110 38 5 10 52 82 77 63 52 42
205 131 107 102 84 98 84 68 84 92 84 69 46 38 38 32 28 32 26 21 21 24 27 29 21 17 12 -1 4 32 96 130 61 60 16 24 -2 45 62 66 55 45 39
208 102 122 72 74 73 74 85 84 92 86 63 41 38 40 37 30 27 22 19 20 28 23 29 28 20 15 2 18 26 53 76 52 19 25 3 -12 30 39 40 37 37 37
318 154 97 114 83 94 84 86 84 86 75 47 43 42 36 29 28 22 18 19 23 24 26 31 32 24 16 9 10 23 50 70 32 46 19 -0 7 29 33 27 24 23 17
178 73 18 44 73 94 89 74 74 65 45 38 38 27 23 25 14 12 18 17 22 22 21 26 31 25 22 26 26 43 65 43 1 44 49 5 42 46 39 37 30 25 27
93 163 -20 43 74 88 69 58 47 48 34 30 14 11 16 16 10 8 13 19 25 25 25 25 21 24 41 48 27 57 83 27 21 83 74 23 37 40 33 36 37 31 36
199 66 -8 28 34 66 48 48 55 47 24 24 12 12 33 6 -7 -0 6 16 4 18 26 15 7 44 59 53 52 35 59 57 51 55 76 58 56 45 32 30 30 31 52
-16 -141 -63 34 48 16 -14 -9 31 12 7 16 6 6 -6 2 -10 16 22 26 22 17 17 -0 21 34 30 34 67 80 74 43 46 49 40 42 53 85 70 50 33 30 51
-119 -95 -29 -32 -26 24 20 21 12 -6 -9 -1 37 51 25 25 18 44 37 53 46 62 65 82 122 113 108 131 120 103 79 68 48 55 47 64 66 61 74 72 66 64 65
-82 2 18 13 23 7 -4 6 -17 -2 29 100 121 102 63 90 69 63 88 113 114 150 179 154 152 148 154 163 172 141 126 101 76 77 87 103 84 90 92 93 110 113 90
55 31 83 78 40 77 133 141 190 244 263 213 154 120 77 69 89 103 138 121 118 135 141 138 120 133 154 144 153 177 175 164 175 146 111 72 83 91 128 136 163 142 104
55 35 54 58 103 186 224 265 286 251 201 183 149 120 130 127 120 116 115 134 134 102 104 116 123 142 148 128 122 112 122 157 160 121 92 69 99 149 145 167 151 122 88
57 45 23 38 148 207 221 207 195 190 190 160 163 137 141 124 101 86 105 142 133 109 110 120 111 111 107 108 112 111 150 124 88 93 110 143 101 96 139 129 136 115 34
69 52 28 124 165 206 173 175 185 196 212 169 206 137 145 73 43 92 123 123 116 116 107 86 67 62 76 89 85 101 85 82 85 71 83 92 102 143 107 110 134 106 50
115 98 192 241 213 223 198 186 218 226 206 151 124 64 62 -13 3 67 120 91 75 64 76 55 59 56 59 86 85 85 91 98 91 85 131 194 220 129 72 56 118 126 178
238 276 317 295 293 273 259 231 206 163 106 76 49 31 51 65 75 -10 46 -0 46 61 41 38 55 75 66 70 65 63 54 65 80 84 186 173 234 294 343 352 260 181 171
415 466 422 370 297 315 254 210 155 109 75 53 70 98 102 85 95 86 83 90 63 61 60 62 68 70 51 47 50 25 28 77 83 161 173 189 201 212 258 252 285 234 242
440 445 394 345 212 187 178 117 100 101 81 101 84 121 138 112 109 79 73 62 67 77 100 105 93 89 82 77 59 61 50 41 112 97 112 110 132 93 122 142 207 216 209
432 408 338 245 151 115 85 86 116 142 153 153 143 157 145 136 102 67 47 49 81 103 117 101 92 104 96 86 105 114 122 143 116 115 70 86 104 122 115 119 131 165 133
273 218 186 83 63 64 74 111 172 130 169 146 159 135 135 101 65 86 75 103 126 120 93 72 88 121 154 148 159 156 168 192 185 198 228 143 108 91 88 92 97 109 112
164 133 112 69 91 63 5 167 159 144 220 273 301 245 220 191 193 164 148 136 140 154 168 169 167 180 186 192 189 183 208 239 225 235 230 222 172 125 116 128 101 82 71
112 140 78 63 104 197 240 236 236 310 358 411 369 322 274 280 321 323 308 307 268 252 236 205 174 168 190 211 184 187 222 260 245 265 264 236 196 149 139 122 93 73 81

GFSSE_con_3kmhel_060.txt.gz
Helicity
37 89 98 107 123 111 89 65 56 52 69 91 96 94 86 84 73 64 50 36 30 32 31 27 26 27 36 50 55 52 48 50 33 40 32 37 48 38 33 37 38 37 55
64 73 138 130 122 122 86 67 54 49 74 89 90 80 72 64 44 32 25 26 27 27 25 26 31 35 44 63 85 66 44 29 26 33 45 27 38 34 55 37 32 33 55
79 76 141 188 150 130 92 73 57 55 74 79 75 66 61 48 38 33 28 22 22 25 25 29 32 35 40 70 101 80 9 5 20 23 30 -14 -10 48 53 54 47 46 47
149 109 107 285 148 117 79 72 51 63 72 68 64 50 41 39 34 27 23 17 16 26 28 28 27 29 32 74 98 109 116 23 20 44 10 -16 -5 36 54 59 61 66 67
158 139 148 210 169 115 69 66 70 69 64 56 57 43 41 37 32 24 17 12 16 23 27 33 35 34 27 56 89 80 62 36 25 37 5 -25 -43 8 42 46 41 48 49
191 191 209 254 183 126 84 83 82 58 54 54 47 39 34 30 26 21 14 17 23 31 36 29 33 45 52 73 80 85 72 60 48 35 1 -28 -30 19 33 38 36 38 31
237 206 148 147 94 78 71 54 68 48 56 47 37 31 26 24 25 23 16 13 13 23 27 41 31 53 78 97 109 111 70 54 31 27 5 0 -3 27 33 31 31 32 32
310 308 112 91 70 69 63 81 48 49 52 41 36 33 21 11 16 18 6 4 16 15 29 29 45 68 80 93 109 119 90 48 52 41 41 20 36 37 36 35 30 27 36
310 231 183 95 50 -12 47 47 37 43 42 32 24 20 6 10 16 8 11 10 18 29 31 37 75 85 91 95 82 86 87 54 58 52 42 29 54 56 45 41 37 34 41
170 127 3 40 41 30 42 29 36 46 20 4 2 13 12 15 21 26 17 28 37 39 42 54 57 72 74 70 57 60 85 63 39 58 41 26 59 54 47 32 28 39 40
94 63 77 27 -11 30 30 12 31 41 4 5 43 31 27 23 39 36 47 62 66 58 45 60 47 68 72 85 84 76 68 33 22 46 37 39 41 56 57 51 53 39 35
156 70 -15 -86 -15 -13 -6 -4 10 22 -7 27 18 26 63 58 62 70 88 89 86 74 82 50 64 110 104 87 91 97 74 64 67 55 41 52 68 94 82 78 76 77 72
-53 -185 -127 -46 -25 -10 17 39 51 44 44 55 74 59 51 37 61 67 85 97 56 66 93 117 168 159 161 163 158 157 140 126 120 112 91 96 85 107 106 101 111 96 90
-126 -114 -5 -1 -28 12 51 47 42 90 109 100 78 64 58 94 99 89 107 120 122 129 157 155 158 163 179 161 158 173 172 159 157 158 163 135 106 116 126 131 122 123 115
22 -23 0 -17 -34 -3 70 105 115 121 126 105 97 95 83 96 122 125 134 144 137 149 176 154 142 139 140 135 134 150 160 165 150 136 134 164 125 122 130 135 142 145 115
-41 -24 1 -32 -3 100 95 104 86 112 114 132 128 124 135 140 157 154 141 139 155 158 150 122 103 99 103 101 122 142 154 146 135 128 106 126 123 147 143 157 143 103 90
-5 65 72 127 136 139 125 132 118 129 149 151 128 138 150 136 138 135 126 135 141 127 118 105 109 103 100 102 121 128 124 130 136 141 129 123 104 113 139 145 143 131 105
46 81 123 112 118 156 156 171 171 167 181 176 160 149 168 164 132 152 105 83 112 145 114 91 77 84 88 81 64 91 108 100 120 132 141 152 183 171 182 221 190 144 127
111 115 149 127 150 182 193 206 198 197 202 181 148 150 162 135 146 142 111 127 162 157 111 69 80 48 33 12 30 62 49 78 118 149 147 194 217 279 267 264 263 285 209
87 109 156 148 178 199 232 243 229 222 205 140 120 137 156 136 135 148 150 133 95 82 63 54 21 16 -19 3 9 25 -14 16 72 121 132 139 154 205 227 270 245 234 286
137 166 160 209 205 249 259 248 228 198 138 102 91 141 139 111 134 131 93 62 48 57 38 7 21 14 18 13 12 21 -5 48 55 72 73 96 118 134 154 194 210 201 202
267 219 208 212 231 233 233 218 199 155 87 82 106 115 125 156 146 113 69 73 53 35 33 68 56 57 48 54 52 40 58 46 39 24 41 85 103 105 140 166 167 163 155
312 278 275 235 228 191 190 249 211 189 177 164 153 154 136 131 121 105 47 22 16 10 41 59 72 75 78 52 45 68 76 83 87 43 78 99 93 86 92 124 125 155 157
322 306 283 247 165 152 225 181 145 166 188 122 136 140 141 123 100 69 20 64 66 61 118 99 83 78 86 80 98 106 132 151 127 117 115 173 174 135 116 117 120 131 129
330 288 224 139 154 149 107 83 133 155 139 157 166 177 143 141 171 200 198 202 186 192 174 162 145 127 130 143 154 152 163 171 182 187 171 177 226 143 128 130 113 104 112
224 233 169 140 60 65 80 128 148 204 212 255 261 256 288 352 273 303 328 209 236 222 219 197 174 154 145 164 186 200 219 213 200 209 220 197 227 178 141 136 121 106 83